ECMWFNIL_850_spd_000.txt.gz
Wind_Speed
21 20 19 18 15 11 10 9 8 7 7 6 6 6 6 6 5 4 3 2 1 1 1 2 3 4 4 4 4 5 6 6 6 6 7 7 8 8 9 10 11 11
23 22 22 21 19 15 12 11 9 8 8 8 7 7 8 8 7 5 4 3 2 2 2 3 4 5 5 5 6 6 7 8 9 9 9 9 8 8 9 10 11 12
25 25 24 23 21 18 15 13 11 10 10 9 9 9 10 9 8 7 5 4 3 3 4 5 6 6 6 6 6 7 8 9 10 11 11 12 11 10 10 10 11 12
28 27 25 25 23 20 18 16 13 12 12 12 11 11 11 10 9 8 7 5 4 5 6 7 8 8 7 7 8 9 10 11 12 12 13 13 13 13 12 12 12 13
29 28 26 25 24 22 20 18 16 15 14 13 13 12 13 12 11 9 8 7 6 7 8 9 10 10 9 9 10 11 12 13 14 15 15 15 15 15 16 16 16 16
30 31 28 26 25 24 22 20 18 17 16 15 14 14 14 13 12 11 9 9 8 9 10 11 12 12 11 11 12 13 14 15 15 16 17 17 17 18 18 19 19 19
32 32 31 29 27 25 24 22 20 19 18 17 16 16 15 15 13 12 11 11 11 11 12 13 14 13 13 13 13 14 15 16 17 18 18 19 20 21 21 21 21 21
32 32 32 31 29 28 26 24 22 20 19 19 18 18 17 16 15 15 14 14 14 15 15 15 15 15 15 15 15 16 17 17 18 19 20 21 22 23 23 23 22 21
36 35 34 33 32 31 29 27 24 21 21 21 20 19 19 18 18 17 17 17 18 18 17 17 17 17 17 17 18 18 18 19 20 20 21 23 24 24 25 24 24 23
40 39 38 36 34 33 32 29 25 23 22 23 22 21 21 21 20 20 21 21 21 20 19 19 19 19 18 19 19 19 20 20 21 22 22 23 24 25 25 26 25 25
39 40 43 42 38 36 36 33 27 24 24 24 24 23 22 22 23 23 24 23 22 21 21 20 20 20 20 20 20 20 21 21 22 23 23 24 25 25 26 26 26 26
40 42 45 45 40 38 39 37 31 26 26 26 25 24 23 24 25 25 25 24 23 22 22 21 20 21 21 20 20 21 22 23 23 24 25 25 26 26 27 26 26 26
39 42 45 47 44 39 38 39 35 29 28 27 26 24 24 24 26 26 26 24 24 23 22 21 21 21 21 20 21 22 23 24 25 26 27 28 28 28 28 27 27 27
33 39 43 46 46 43 39 37 36 34 30 28 26 24 23 24 26 26 25 24 23 22 21 21 21 21 20 21 21 22 24 25 27 28 29 30 29 29 28 27 28 27
26 34 39 41 43 44 42 38 37 37 34 29 26 23 22 23 25 25 25 24 23 22 21 21 20 20 20 21 22 23 25 27 28 29 29 29 28 27 27 27 27 27
21 26 31 34 38 42 44 42 39 38 36 31 26 22 21 23 24 25 24 23 22 22 21 20 19 19 20 21 23 24 26 27 28 28 27 27 26 27 27 27 27 28
20 22 24 28 33 38 43 45 42 39 38 33 26 22 21 22 23 23 23 22 22 21 19 19 19 20 21 22 23 25 26 26 26 25 24 24 25 26 27 28 28 29
19 21 23 27 30 34 42 47 42 40 40 34 26 23 22 22 22 22 23 22 20 19 18 18 20 21 22 23 24 24 25 25 24 24 23 23 24 25 26 28 29 30
19 21 24 28 30 34 42 43 39 38 37 29 23 22 22 22 22 22 21 20 19 17 17 19 21 22 22 23 23 23 23 24 24 24 24 24 25 26 27 29 30 31
20 21 24 29 32 36 40 39 38 38 35 26 23 23 22 21 20 18 18 18 17 17 19 21 22 22 21 21 21 21 22 23 24 24 25 26 27 28 29 30 31 32
22 22 24 29 33 37 39 38 37 37 31 25 24 22 20 18 17 16 17 17 17 19 21 21 21 20 19 19 20 21 22 23 24 25 27 29 30 30 31 32 32 32
23 23 24 27 32 36 37 37 38 36 27 23 24 22 18 16 14 14 15 17 19 21 21 20 19 18 18 19 21 22 22 23 25 27 29 31 32 33 34 35 35 34
24 23 24 26 30 33 34 36 39 36 29 27 28 24 18 14 13 14 15 17 19 20 19 18 17 16 17 19 21 22 23 24 26 28 31 33 34 36 37 38 38 37
23 23 24 26 28 30 32 35 35 31 30 30 27 21 17 14 13 13 15 17 17 17 17 16 14 15 17 20 21 22 23 24 27 29 32 35 36 38 39 41 41 41
22 22 23 25 27 30 31 33 32 30 31 28 22 19 18 15 12 11 13 14 15 15 14 13 14 15 17 19 21 21 23 25 27 31 34 36 38 40 42 43 44 43
20 20 22 25 26 28 31 33 33 32 28 23 18 16 12 10 9 10 11 12 12 12 12 13 14 15 17 19 21 21 23 25 28 31 34 37 40 42 44 45 45 45

ECMWFNIL_850_spd_003.txt.gz
Wind_Speed
14 16 16 14 13 12 11 11 11 10 8 6 5 5 5 5 5 5 4 3 3 2 1 1 1 1 2 3 3 4 4 5 6 6 7 8 8 8 8 8 7 7
13 15 17 17 15 14 13 13 12 12 10 8 6 6 7 6 6 6 5 5 4 3 3 2 2 2 2 3 4 4 5 6 7 8 9 10 11 11 11 11 10 10
15 15 17 18 18 17 15 15 15 14 13 11 9 8 8 8 7 7 7 7 6 5 5 4 4 4 4 4 5 6 7 8 9 9 10 11 12 12 12 13 12 12
18 17 17 19 20 19 18 18 18 17 15 14 12 10 10 9 9 9 9 9 8 7 6 6 5 5 5 5 5 6 7 9 10 11 12 12 13 13 13 13 14 13
21 19 20 20 21 22 22 21 20 19 18 16 15 13 12 11 11 10 10 10 10 9 8 8 6 6 6 6 7 8 8 9 10 12 13 14 15 15 15 16 16 16
23 22 22 23 23 24 24 24 22 21 20 19 17 16 15 14 13 12 12 12 11 11 10 9 8 8 8 8 9 10 10 10 11 12 13 14 15 16 17 18 18 18
27 24 23 23 25 26 26 26 25 23 22 21 19 18 17 16 16 14 13 13 13 13 12 11 11 10 11 11 12 12 12 12 12 12 13 13 14 16 17 17 18 19
32 28 24 23 25 28 29 28 27 25 24 23 22 20 19 18 17 16 15 15 15 15 14 13 13 13 13 14 14 15 15 15 14 14 14 15 15 16 17 17 18 19
36 35 32 29 28 29 30 30 29 27 26 25 24 22 21 19 19 18 17 17 17 17 16 15 14 14 15 16 16 17 17 17 17 17 17 17 18 18 19 19 20 21
33 37 39 39 36 33 31 30 31 30 28 27 26 24 22 21 20 20 20 20 19 19 18 17 16 17 18 18 19 19 20 19 19 19 19 19 20 20 21 22 22 22
28 33 39 42 42 40 36 32 31 32 31 30 28 26 25 23 22 22 22 22 21 21 20 19 19 20 20 21 22 22 22 21 21 21 21 21 22 22 23 24 23 22
24 28 33 38 42 44 43 38 35 34 34 34 31 29 27 25 24 25 24 24 23 23 23 22 22 23 23 24 24 23 23 23 22 22 22 23 24 24 25 23 21 20
16 20 25 30 35 40 42 42 40 38 37 37 35 32 30 28 27 27 26 25 24 24 25 25 25 25 25 24 24 24 24 24 23 22 23 24 25 25 24 22 20 19
10 13 17 21 27 32 36 40 40 39 38 37 38 36 33 30 30 28 27 26 25 25 26 26 26 26 25 25 24 24 24 24 23 23 24 25 25 24 23 22 21 20
9 10 12 15 20 24 29 33 36 38 37 36 39 40 37 34 33 30 27 26 25 26 26 27 27 26 25 24 24 24 24 23 23 24 24 24 24 23 22 21 21 21
13 13 13 13 16 19 22 25 29 33 34 36 40 42 39 36 33 27 25 25 24 25 26 26 26 24 23 24 23 23 23 23 23 24 24 23 22 21 21 21 21 22
16 17 16 15 15 15 18 21 24 28 31 35 40 39 36 35 31 24 23 25 24 25 26 26 25 22 22 23 22 22 22 22 23 23 23 22 21 21 22 22 23 24
19 19 19 19 17 16 17 20 23 26 28 32 36 34 32 33 29 24 25 26 25 25 26 24 22 20 21 22 22 21 22 22 23 22 22 21 21 21 22 23 25 26
20 21 22 22 21 19 19 21 24 25 26 30 33 33 34 34 29 25 27 28 26 25 25 22 20 19 19 19 20 21 21 21 22 21 21 21 22 23 24 25 26 27
20 21 22 23 23 22 21 21 23 25 26 30 33 34 35 35 32 29 28 28 26 25 23 20 18 17 17 18 20 21 21 21 21 21 22 22 22 23 25 26 28 29
22 22 22 23 23 23 22 21 23 25 28 30 33 34 36 37 36 32 28 27 25 23 20 17 15 15 16 18 19 20 20 21 21 22 22 22 23 24 26 28 29 31
24 24 23 23 22 22 21 20 21 24 27 30 33 35 35 37 35 30 27 26 24 20 17 15 14 15 16 18 18 19 20 21 22 22 23 24 25 26 27 30 31 33
24 24 24 23 22 21 20 20 20 22 25 30 33 36 37 38 34 30 27 25 21 17 14 14 14 15 16 17 17 17 19 20 21 22 24 25 27 28 30 32 34 34
24 24 23 22 23 22 20 18 18 20 23 28 33 38 38 36 31 27 24 20 16 14 13 13 14 15 15 15 15 16 17 19 20 22 25 26 28 30 33 35 37 38
24 24 22 21 21 21 18 17 18 20 23 28 35 37 35 31 27 23 19 15 14 13 12 12 12 12 12 12 13 14 16 18 20 23 25 27 29 31 35 38 40 41
24 23 22 20 20 18 16 15 18 21 26 32 37 35 31 28 24 19 16 14 13 12 10 10 9 9 10 11 12 13 15 18 20 23 26 28 29 32 36 39 40 42

ECMWFNIL_850_spd_006.txt.gz
Wind_Speed
22 20 18 17 16 14 12 11 10 9 7 8 8 8 7 6 4 3 3 3 2 1 1 1 1 2 3 4 4 4 4 5 5 7 7 8 9 9 8 8 7 7
22 22 20 19 17 16 15 13 11 10 9 8 8 9 9 7 6 5 5 4 4 3 3 2 1 1 1 2 2 3 3 4 5 7 8 9 10 10 10 9 8 7
22 21 21 21 19 18 16 15 13 12 11 11 10 10 10 8 7 7 7 6 6 6 5 4 3 2 1 1 1 1 2 4 5 7 8 10 10 11 11 11 10 9
21 21 20 21 21 20 18 16 15 14 14 14 13 12 11 10 9 8 8 8 8 8 8 7 6 4 4 3 3 3 3 4 5 6 8 9 10 11 12 12 12 12
24 22 21 21 21 21 20 19 18 16 16 15 15 15 14 13 12 11 10 10 10 10 10 9 8 6 5 5 5 5 6 6 6 7 8 9 10 11 12 13 13 14
27 25 23 22 22 22 22 21 20 19 18 17 17 17 17 16 15 13 12 11 12 12 12 11 10 8 6 6 6 7 7 8 8 8 9 10 11 12 13 14 15 16
30 28 26 25 24 23 23 23 22 21 21 20 19 18 19 19 18 17 15 14 13 14 14 14 13 11 9 8 8 8 8 8 9 9 10 10 12 13 14 15 16 16
32 30 30 29 27 26 25 24 24 24 23 22 21 20 21 21 20 20 18 16 16 16 16 16 14 13 12 10 10 10 9 9 9 9 10 11 12 13 14 16 17 17
30 30 31 31 31 31 29 27 26 26 25 25 24 23 22 22 23 22 21 19 18 18 18 17 16 15 14 13 13 12 11 11 11 11 11 12 13 14 15 16 17 18
25 26 27 30 32 33 33 32 31 28 26 26 26 26 24 24 25 25 23 22 22 21 20 19 18 17 16 16 15 14 13 13 13 13 14 14 14 15 16 17 18 18
20 22 23 26 29 32 32 34 34 32 29 27 27 28 27 26 27 27 26 26 25 24 23 21 20 19 18 18 17 16 16 16 16 16 16 16 16 17 17 18 18 18
13 16 19 21 24 30 33 35 35 35 33 31 29 29 30 29 30 30 29 29 27 26 25 23 22 21 21 21 19 18 18 17 18 18 18 17 17 17 18 18 18 17
7 8 13 15 17 22 28 32 32 32 32 33 31 31 32 32 33 33 32 30 29 28 27 25 24 23 23 22 21 20 19 19 20 20 20 20 19 19 19 19 18 17
8 7 9 11 12 14 17 21 23 23 24 26 28 30 31 31 32 33 32 31 31 31 30 28 27 26 24 23 22 21 20 21 21 20 20 20 20 20 20 19 18 17
9 8 9 10 11 12 13 14 16 17 18 19 22 25 27 29 33 36 34 33 34 33 32 30 29 27 26 24 23 22 21 21 21 20 20 20 20 19 19 18 18 17
10 11 11 12 12 13 14 13 13 13 15 16 17 19 20 23 30 34 34 35 37 35 34 32 30 29 28 26 23 22 21 21 21 20 19 19 18 17 17 17 17 17
12 12 13 14 15 15 16 16 14 12 13 14 14 16 18 20 24 28 31 34 36 36 34 33 32 31 29 26 23 21 21 21 20 20 19 18 17 16 15 15 16 17
14 14 13 14 15 16 17 18 17 14 12 11 11 14 18 21 23 24 27 31 34 36 36 34 31 29 27 25 23 22 21 20 19 19 18 17 16 16 15 14 16 19
17 16 15 15 16 17 18 17 18 17 14 11 12 13 16 19 19 21 26 31 35 39 39 34 28 27 27 25 23 22 21 19 17 18 17 16 16 17 17 17 18 19
17 16 16 17 17 18 20 19 18 18 16 12 13 15 17 18 19 21 26 31 35 38 38 32 28 27 27 24 21 20 19 17 15 16 16 16 17 18 19 19 20 19
17 17 18 19 19 19 21 21 21 20 18 13 12 15 18 17 18 21 26 30 33 36 35 32 28 27 24 21 18 17 16 15 15 17 17 17 18 19 19 19 19 20
19 20 20 20 20 19 20 22 22 22 20 15 11 13 16 15 15 21 27 30 33 34 34 32 27 23 19 16 15 14 14 14 15 15 16 16 16 17 18 17 18 21
22 23 23 22 21 19 18 20 22 21 21 18 13 13 14 15 18 23 28 32 34 34 32 27 21 17 15 14 13 13 13 13 12 11 12 13 14 16 17 16 18 21
24 25 25 23 22 20 19 20 21 21 21 18 14 13 13 15 20 27 32 35 35 32 27 21 16 13 12 12 12 11 12 11 10 10 11 12 14 16 16 16 18 21
26 26 26 25 24 22 21 21 21 21 19 15 13 14 15 16 22 31 36 36 33 28 21 16 13 12 11 11 11 11 11 11 10 11 13 14 15 16 16 17 18 21
29 28 27 26 25 23 22 21 21 20 18 15 14 15 16 17 24 33 37 34 28 22 17 13 11 10 10 10 10 11 11 12 13 14 15 16 16 17 18 18 19 20

ECMWFNIL_850_spd_009.txt.gz
Wind_Speed
19 18 18 18 16 15 16 15 14 14 13 12 10 9 8 5 3 4 3 2 2 2 3 3 3 2 2 3 4 4 4 5 6 7 7 8 8 8 8 7 6 6
21 19 18 18 17 16 16 16 16 15 14 14 13 12 10 6 4 5 4 2 2 1 2 2 2 2 2 1 2 3 3 4 4 6 7 8 9 9 9 9 8 7
22 20 19 18 17 17 17 17 16 16 15 15 15 15 12 7 5 5 4 4 4 2 2 1 1 1 2 2 1 1 0 2 3 5 6 7 7 8 9 9 10 10
23 22 20 19 17 17 17 17 17 16 16 16 16 17 14 10 7 6 6 5 6 5 4 3 2 2 2 3 3 2 1 2 2 4 5 5 6 7 7 8 9 9
24 22 21 20 18 17 17 18 18 17 17 17 17 18 16 13 10 9 8 7 7 7 6 5 5 5 4 4 5 4 3 3 3 3 4 5 5 6 6 7 8 9
20 19 19 19 17 17 17 18 17 17 17 17 17 18 18 16 13 12 11 9 9 9 8 8 7 7 7 7 7 6 5 4 5 5 5 6 6 7 7 7 9 10
18 20 21 20 18 17 18 19 19 18 18 18 18 18 19 18 16 15 14 12 12 12 11 11 10 10 9 9 9 8 7 6 7 6 5 6 7 8 9 9 9 8
20 24 24 24 23 20 18 20 20 19 19 19 20 20 21 21 18 18 17 15 14 14 14 13 13 13 12 11 11 11 10 9 9 7 6 7 8 9 9 11 11 10
19 24 23 23 26 26 23 21 20 20 20 19 20 20 21 22 21 20 20 18 17 17 16 16 15 15 15 14 14 14 12 11 10 9 8 9 9 8 7 10 12 12
15 20 21 21 23 25 26 25 22 22 22 20 19 19 20 22 22 22 22 21 20 19 18 18 18 18 18 16 16 16 15 13 12 11 10 10 9 8 8 10 13 13
9 14 18 20 20 20 22 23 22 22 23 22 21 21 22 22 22 23 24 23 23 23 22 22 22 21 21 19 18 18 17 15 14 13 12 11 11 11 11 12 13 13
4 7 12 16 19 21 19 19 19 20 22 23 23 23 23 23 23 23 25 26 26 25 25 24 24 23 22 21 19 19 18 16 15 14 14 13 13 13 14 14 14 13
5 4 6 7 9 12 13 13 15 18 19 20 21 22 23 25 26 25 27 29 28 26 26 25 25 25 23 21 20 19 19 18 17 16 15 15 15 15 15 16 15 15
10 11 12 12 11 11 11 12 13 14 16 18 20 22 22 24 25 26 28 30 29 26 25 25 24 24 23 22 20 19 19 18 18 17 16 16 17 16 16 17 17 16
6 10 12 15 16 15 14 13 12 12 14 16 18 21 22 21 22 26 28 28 27 26 25 25 25 25 24 23 22 21 20 19 19 18 17 17 17 17 18 18 17 17
3 4 5 7 9 9 10 12 12 12 14 15 17 19 21 21 22 24 25 24 24 25 26 27 26 25 26 28 27 24 21 21 21 20 18 17 17 17 17 18 17 17
3 3 4 4 5 6 8 9 10 11 12 14 16 17 18 20 22 23 24 25 25 25 26 28 28 29 31 33 31 27 24 23 22 21 20 18 18 17 16 17 17 16
4 5 5 5 5 6 7 8 9 10 11 12 14 15 16 17 20 21 22 24 27 27 28 30 32 33 35 34 31 28 26 25 23 20 19 18 17 17 15 14 14 13
5 5 6 6 6 6 7 9 9 10 11 12 12 14 14 14 17 20 19 20 25 27 30 33 35 36 36 35 32 28 26 25 20 17 17 16 15 16 15 14 13 14
5 6 6 6 7 8 8 9 10 10 11 11 11 13 13 12 14 15 15 18 21 24 28 33 36 37 36 35 32 28 26 23 17 15 16 15 14 16 17 17 17 16
6 7 8 8 9 9 9 10 11 11 12 12 12 12 13 14 15 15 15 17 20 21 26 32 34 33 33 33 31 28 26 22 18 18 19 18 16 17 18 18 17 16
7 8 9 10 10 10 10 11 11 12 12 13 13 12 13 14 16 17 17 17 18 21 27 32 32 30 30 31 29 26 24 20 19 18 18 17 16 16 16 15 14 14
8 9 9 10 11 11 12 11 12 12 12 13 13 14 14 14 14 16 17 17 19 23 27 30 28 27 30 30 27 24 21 18 16 15 13 13 13 13 12 12 12 14
10 10 11 11 12 12 12 12 13 13 13 13 14 14 15 15 14 15 17 19 21 24 27 28 27 27 30 28 24 22 20 16 13 10 8 9 10 10 11 11 13 15
12 12 13 13 13 13 13 14 14 14 14 15 15 15 16 15 14 15 17 18 20 23 26 27 26 27 29 26 23 21 19 17 14 10 8 9 10 10 10 11 12 14
14 14 14 14 14 15 15 15 15 15 15 15 16 16 16 15 15 15 16 18 21 24 25 24 24 25 26 24 22 20 19 18 15 11 9 9 9 9 10 11 11 12

ECMWFNIL_850_spd_012.txt.gz
Wind_Speed
22 20 18 16 13 13 12 11 12 12 9 7 4 3 3 4 4 5 6 6 7 6 6 6 6 6 5 6 6 6 6 7 7 7 7 6 7 6 6 6 6 4
22 21 19 18 16 14 14 13 12 12 11 10 8 5 3 3 3 4 5 6 6 6 5 5 5 4 4 4 5 5 5 6 6 6 7 7 8 7 7 8 7 7
23 21 19 19 18 15 14 14 13 12 12 12 11 9 6 3 3 2 4 4 5 5 5 5 5 4 4 3 3 3 4 5 5 5 6 6 7 7 7 7 7 7
22 21 18 16 16 14 13 13 14 14 13 13 12 12 10 6 4 3 2 3 3 4 4 4 4 4 3 3 2 2 2 3 4 4 4 5 5 6 6 6 7 6
21 20 17 15 14 14 13 12 14 14 14 13 13 14 14 10 8 7 5 4 4 3 4 4 4 4 4 3 3 2 2 1 1 1 2 3 3 4 4 4 4 4
19 18 18 18 17 15 14 14 15 14 13 13 14 15 16 15 12 10 9 8 7 6 5 5 5 5 5 5 4 4 3 3 2 1 1 1 1 1 1 1 2 3
18 18 17 18 19 18 17 16 15 15 14 12 13 15 17 18 16 15 13 12 11 11 9 8 8 8 7 7 7 6 6 5 3 3 4 4 3 2 2 2 2 3
18 19 19 18 18 20 19 17 17 17 15 13 14 15 17 19 19 18 17 16 15 15 14 13 12 11 11 10 10 9 8 7 6 5 5 5 5 5 6 5 3 3
15 17 17 16 16 19 20 19 18 17 16 15 15 15 16 19 21 21 19 19 18 18 18 17 16 15 14 13 13 13 12 10 9 8 7 7 7 6 5 7 8 6
13 11 11 12 14 17 20 20 18 16 17 18 19 19 18 19 21 23 22 21 21 21 20 20 19 18 18 17 15 15 15 13 12 11 10 10 9 7 6 8 9 9
8 7 9 13 15 17 19 20 19 19 19 20 21 22 21 21 22 24 25 24 24 23 22 22 22 21 20 20 18 17 17 16 15 14 13 12 11 9 8 9 9 9
10 9 11 14 16 16 17 18 18 20 22 25 26 25 24 25 26 26 27 27 26 25 24 23 23 23 23 22 21 19 19 19 17 16 15 14 13 11 11 11 10 10
12 11 12 13 12 12 12 11 11 11 14 19 23 23 24 27 30 30 29 28 26 25 25 24 24 24 24 23 22 20 20 20 19 18 17 16 15 14 14 13 12 12
11 12 13 13 10 8 8 8 8 8 9 11 13 16 18 23 29 32 31 28 26 25 26 26 25 25 24 24 22 21 21 21 20 20 20 18 17 16 15 15 14 14
7 8 9 8 7 8 9 11 12 13 13 12 12 12 14 16 22 28 29 28 27 27 28 29 28 26 24 23 22 22 22 23 23 22 22 21 20 18 17 16 15 14
2 2 3 3 3 4 5 7 8 10 11 12 13 14 14 15 18 22 25 26 26 27 29 31 32 28 25 24 24 24 25 25 25 24 23 21 21 19 18 17 16 15
3 2 1 1 1 1 2 3 3 5 7 9 11 12 14 15 16 17 19 21 23 25 26 30 34 34 31 30 28 27 27 27 26 25 23 21 20 19 18 17 16 15
3 3 2 2 3 3 2 3 5 5 6 8 9 10 12 14 14 14 15 16 20 22 23 26 30 32 31 31 30 29 30 31 28 25 23 20 19 19 17 16 16 15
3 2 2 2 3 3 3 4 5 6 7 8 9 10 12 14 15 15 15 16 19 21 21 24 27 27 28 29 30 32 34 34 29 25 23 21 20 19 17 15 14 12
2 2 3 3 3 4 5 5 5 6 8 9 10 11 11 13 16 16 14 14 18 22 23 23 24 25 28 30 31 33 35 34 29 24 22 20 19 18 17 16 14 14
3 3 4 4 5 5 5 6 6 7 8 9 11 11 11 12 14 16 16 14 15 19 22 23 21 21 26 32 33 33 34 33 28 23 21 18 17 18 17 17 16 16
5 4 4 4 5 5 5 5 6 7 8 9 11 12 12 12 13 15 16 17 16 17 19 22 20 19 22 28 32 32 31 29 27 26 24 21 20 19 18 17 18 17
6 5 5 5 5 5 6 6 7 8 9 9 10 12 13 13 13 14 16 17 18 18 20 23 23 22 23 26 29 30 28 27 27 28 27 24 20 19 17 17 16 16
6 6 6 7 8 8 8 9 10 11 10 9 10 13 14 14 14 15 15 16 17 20 23 24 23 24 25 26 27 27 25 24 25 26 24 20 16 14 13 13 13 13
8 9 10 10 11 11 11 11 12 13 12 11 11 13 14 14 14 15 15 17 19 21 23 24 23 23 24 24 23 22 21 22 23 22 17 12 10 9 9 9 9 10
10 11 11 11 11 11 11 13 14 14 15 14 13 13 14 14 13 14 16 19 21 23 23 22 22 21 22 21 19 18 20 22 24 22 17 12 11 10 10 10 9 12

ECMWFNIL_850_spd_015.txt.gz
Wind_Speed
16 15 15 15 13 12 12 12 14 15 15 15 14 14 14 13 12 11 11 11 10 9 9 8 7 7 7 7 6 6 6 5 5 6 5 4 4 4 4 3 3 3
17 16 15 15 15 13 12 11 11 13 13 13 13 13 13 12 12 11 11 11 10 9 9 8 7 6 6 6 5 5 5 5 5 6 6 6 6 5 5 5 5 4
20 17 16 16 16 14 13 11 10 10 10 10 11 11 11 10 11 10 10 10 9 9 8 7 7 6 5 5 4 4 4 5 5 5 6 6 6 6 6 6 5 5
21 19 18 16 14 14 13 12 11 10 9 8 7 8 8 7 8 8 7 7 7 7 7 7 6 6 5 5 4 3 3 3 4 5 5 5 5 5 6 5 5 5
21 20 18 16 14 12 12 12 11 10 9 7 6 5 5 5 4 4 4 4 4 4 4 4 5 5 5 4 4 3 3 2 2 3 3 3 4 4 4 3 3 3
20 18 16 16 14 12 11 11 11 10 10 8 6 5 4 3 3 2 1 0 0 0 1 1 2 2 3 3 3 3 3 3 2 2 3 2 2 2 2 2 1 1
20 17 17 16 14 13 12 11 11 11 10 9 7 6 5 4 4 3 3 4 3 3 3 4 5 5 5 5 5 4 4 4 4 4 3 3 3 3 2 3 3 3
22 18 17 16 13 13 14 14 13 12 11 9 8 7 6 5 6 6 6 6 6 6 6 6 7 8 8 9 9 9 8 7 7 6 5 4 4 4 3 3 4 4
23 19 18 17 14 14 17 18 16 15 14 12 11 9 9 8 8 9 9 10 10 9 9 9 9 10 11 12 12 12 12 12 10 9 8 8 7 6 5 5 5 6
21 21 21 20 17 15 17 18 17 16 15 14 13 12 12 11 11 11 11 11 11 11 11 12 13 13 13 13 14 15 15 15 14 12 11 11 10 9 9 9 7 7
20 22 23 21 18 16 17 18 19 18 17 16 16 15 15 15 15 15 14 13 12 11 11 14 15 16 16 15 16 17 17 17 17 15 14 14 14 12 12 12 11 9
18 20 21 20 19 20 21 21 21 21 20 19 18 18 17 18 18 19 18 18 16 14 13 15 16 15 17 18 19 19 19 19 20 19 17 17 17 15 15 15 13 11
16 17 18 17 18 21 21 19 19 20 21 20 20 20 20 21 22 23 23 22 19 16 16 18 18 16 18 22 23 23 23 22 22 21 20 20 19 18 17 16 15 13
14 15 16 16 17 20 20 19 20 19 18 18 18 17 17 17 19 21 23 23 23 22 20 20 21 21 22 25 26 27 26 25 24 23 22 21 21 20 19 19 17 15
11 12 14 14 15 16 18 19 18 17 16 15 14 14 14 14 14 15 16 18 21 23 22 23 25 27 26 26 27 28 28 27 26 25 23 23 22 21 21 20 19 17
9 10 10 10 10 11 12 12 12 12 13 12 11 12 12 12 12 11 12 14 17 20 22 24 27 28 27 27 28 29 28 27 26 26 25 25 24 23 23 22 21 19
10 10 9 7 7 7 6 5 5 6 6 5 5 7 7 9 9 9 10 12 14 15 18 20 23 24 25 27 29 30 29 28 27 27 27 27 26 25 25 23 21 20
10 9 8 7 7 7 5 4 4 4 3 2 3 4 5 6 7 8 9 10 12 13 15 16 18 19 21 25 29 31 31 31 29 28 29 29 29 27 26 23 21 19
10 8 7 8 9 9 8 8 8 6 5 4 5 5 6 7 8 8 9 11 12 13 14 15 17 18 19 22 26 28 31 32 31 30 30 31 30 29 27 23 20 18
8 8 8 10 10 10 10 9 9 8 7 7 6 7 8 8 9 11 12 13 14 14 15 16 17 18 20 21 22 24 27 30 31 32 32 31 30 28 24 20 18 18
7 8 10 10 9 8 7 7 7 8 8 9 9 9 9 9 10 11 11 12 13 14 14 15 15 16 17 19 20 21 24 27 29 31 32 31 27 23 19 18 18 17
7 10 11 11 10 7 5 4 4 4 5 6 8 9 10 10 11 12 12 13 14 15 15 14 14 13 14 15 16 18 20 23 25 29 32 30 24 19 17 17 16 16
8 10 10 9 8 6 3 2 3 4 4 4 5 6 8 9 10 11 12 13 15 16 16 15 15 14 14 14 15 15 17 21 25 28 30 25 19 17 17 17 15 16
9 10 9 8 7 6 6 6 7 6 6 6 6 7 7 9 10 12 13 14 15 16 17 17 16 15 15 15 16 16 17 21 25 27 25 20 16 15 16 15 15 16
8 8 8 9 9 9 10 11 10 9 9 8 8 9 9 9 11 12 14 16 16 16 17 18 17 16 16 17 17 17 18 21 25 26 24 20 16 14 12 13 15 15
11 10 10 12 13 13 13 12 12 12 12 12 12 11 10 10 12 14 16 17 17 17 18 18 18 18 18 18 18 18 20 22 25 24 22 20 17 15 13 13 14 14

ECMWFNIL_850_spd_018.txt.gz
Wind_Speed
19 17 16 16 14 13 13 14 14 14 14 13 13 13 13 12 12 12 11 10 9 9 9 9 9 9 9 9 8 7 7 6 6 6 6 5 5 5 5 4 4 4
20 17 16 17 17 16 14 15 16 15 15 15 14 15 14 13 12 12 11 10 9 8 8 9 8 8 8 8 7 6 6 6 6 6 6 5 5 5 4 4 4 4
21 19 18 18 18 18 16 16 16 15 15 15 15 15 15 14 13 12 11 10 9 9 8 8 8 8 7 7 7 6 6 6 6 6 6 6 6 6 5 5 4 4
22 21 20 18 18 18 17 17 16 15 16 15 15 15 15 15 14 13 12 11 10 9 8 8 8 8 7 7 7 6 6 6 6 6 6 6 6 6 6 6 5 4
25 22 21 19 18 17 17 17 16 15 16 15 14 15 15 15 14 13 12 11 10 9 8 8 7 7 7 6 6 6 6 5 5 5 5 5 4 4 4 4 4 4
26 24 22 21 19 18 17 17 15 15 14 13 13 13 13 13 12 12 12 11 10 9 8 7 5 5 5 4 5 5 5 5 4 4 3 2 1 1 2 2 2 2
28 25 22 22 21 18 17 16 14 13 13 11 11 10 10 11 10 10 10 10 9 8 7 7 5 4 3 3 3 3 3 4 4 4 3 3 3 3 2 1 2 2
29 25 24 23 22 20 19 18 17 15 13 13 12 11 10 10 9 9 10 9 9 9 8 8 7 6 5 5 5 4 4 5 5 5 5 5 5 4 4 4 4 3
29 26 26 25 24 23 22 22 21 18 17 16 14 13 12 11 10 9 9 9 10 10 10 9 9 8 7 7 6 6 6 6 7 7 7 7 6 6 6 6 5 5
29 27 27 27 26 25 24 24 22 20 20 18 16 15 14 13 12 11 10 10 10 11 11 10 9 8 7 6 6 7 7 8 8 9 9 9 9 8 8 7 7 7
29 27 27 28 29 27 25 23 20 20 21 20 19 19 17 15 15 14 14 14 14 13 12 11 10 9 9 8 8 8 9 9 9 9 10 10 11 11 10 10 9 9
28 27 26 27 28 27 25 21 20 23 23 22 22 21 19 18 18 17 17 17 17 17 16 14 13 12 12 11 10 11 11 11 10 10 11 11 12 12 13 12 12 12
24 26 26 26 27 27 26 22 23 26 25 24 24 22 21 20 19 18 19 19 19 18 18 17 16 15 15 14 14 16 16 15 13 13 13 13 13 14 14 14 14 14
20 22 23 24 26 27 25 24 25 27 25 23 23 21 21 21 19 19 19 19 20 19 19 18 18 18 17 17 19 20 19 18 17 16 16 16 16 16 16 16 16 16
17 18 19 21 23 25 24 25 26 26 24 23 22 20 20 21 22 22 22 22 23 23 22 22 22 22 21 22 23 23 21 20 20 20 19 19 18 18 18 18 18 17
17 17 17 18 20 21 21 21 22 23 23 23 21 20 20 22 22 23 23 23 22 21 21 22 22 23 24 25 25 24 22 21 21 21 21 21 21 20 21 21 20 19
15 15 14 14 15 16 16 16 18 19 19 18 17 17 18 18 19 19 19 17 16 16 16 17 18 19 21 22 21 21 21 22 23 23 23 23 23 23 23 22 22 21
12 12 12 11 11 11 12 12 13 13 14 14 14 14 14 14 14 15 15 14 14 13 13 13 14 14 16 17 17 17 18 20 22 23 23 24 24 24 24 24 24 24
12 12 12 12 12 12 11 11 12 12 12 12 12 11 11 11 12 12 12 12 12 11 10 11 12 13 14 15 16 17 17 18 19 21 23 24 25 25 26 26 26 26
13 13 12 12 13 13 12 12 12 12 12 11 11 11 11 11 11 12 12 12 11 10 10 11 12 13 14 14 15 16 17 18 19 20 21 23 25 26 27 28 28 27
13 13 13 14 14 14 14 13 12 12 12 12 11 11 11 11 11 12 13 12 12 11 11 11 11 11 12 12 13 14 15 17 19 19 20 21 24 25 26 27 27 27
12 12 14 16 17 16 16 15 15 15 15 14 14 13 13 13 13 14 14 13 13 12 12 12 12 11 11 11 12 12 13 14 16 16 18 20 22 25 26 26 26 25
12 12 13 15 16 15 15 14 14 14 14 13 13 12 12 13 13 13 13 12 12 12 12 12 12 12 12 12 12 12 12 12 12 12 13 17 21 24 25 24 23 21
12 12 13 14 15 14 13 11 9 9 9 9 8 8 8 9 11 13 13 12 11 11 12 13 13 14 14 14 14 14 13 13 12 11 11 16 20 22 22 21 19 17
11 12 12 13 13 13 12 10 8 8 8 7 7 6 6 8 10 12 13 14 13 13 13 13 14 14 15 16 16 16 15 14 14 12 13 17 20 22 22 21 18 16
8 10 10 10 10 11 11 11 12 12 11 9 9 10 10 11 12 13 14 15 15 15 14 14 14 15 16 17 17 17 16 15 14 14 15 17 21 22 21 19 17 17

ECMWFNIL_850_spd_021.txt.gz
Wind_Speed
15 10 9 12 11 8 6 6 6 6 6 6 6 6 7 8 9 9 9 9 9 9 9 9 8 7 7 7 8 8 7 6 6 6 5 5 5 4 4 4 3 3
16 13 13 16 14 11 8 7 8 7 7 7 7 8 8 9 9 9 9 8 8 8 8 8 7 7 7 8 8 8 7 7 6 6 6 5 5 5 5 5 4 4
19 17 17 18 15 12 11 10 10 9 8 8 9 9 9 9 9 9 8 8 8 8 8 8 8 8 8 9 9 9 9 9 8 8 8 7 7 7 7 6 6 5
23 20 19 17 13 11 12 12 12 11 10 10 9 9 10 10 10 10 9 9 9 9 9 9 9 10 10 10 10 10 10 10 9 9 9 9 8 8 8 8 7 6
26 23 21 17 12 11 12 15 15 14 13 11 10 10 10 10 10 10 9 9 9 9 9 9 10 10 11 11 11 10 10 9 8 8 8 7 7 6 6 6 6 6
27 25 23 18 15 13 13 14 15 14 14 12 11 11 11 11 10 9 9 8 8 8 8 8 8 9 9 9 9 8 8 7 6 5 5 4 4 4 3 3 3 3
28 26 23 19 18 15 12 14 15 15 14 12 11 12 11 11 11 9 9 8 7 7 6 6 6 6 6 6 6 7 6 6 5 4 3 2 2 1 1 1 0 0
28 26 23 20 19 16 13 16 18 15 14 13 12 11 11 11 10 9 9 8 8 7 7 6 6 5 5 5 5 5 5 5 5 5 4 4 3 4 4 3 3 3
29 26 24 21 20 18 16 17 18 15 14 15 14 13 13 11 10 9 9 8 8 8 8 7 7 7 7 7 6 6 6 6 6 6 6 6 6 6 7 6 5 5
28 26 25 23 22 21 19 20 20 16 15 15 15 16 17 15 13 12 10 9 9 8 9 9 8 8 8 8 7 7 7 7 7 7 7 8 8 8 9 8 7 6
28 27 26 25 23 22 22 25 25 21 18 17 16 17 18 16 15 14 13 12 11 10 10 11 11 10 10 9 9 8 8 8 8 9 9 9 9 10 10 10 9 8
27 25 25 25 24 23 23 25 26 24 22 21 19 19 20 19 17 16 16 16 15 14 14 14 13 13 13 12 11 11 10 10 9 10 10 10 10 10 10 10 10 10
24 22 22 24 24 22 23 25 25 25 25 26 25 23 23 22 21 21 19 19 20 20 19 17 16 16 16 15 15 14 14 13 13 13 13 14 13 13 12 12 11 11
22 21 21 23 23 23 25 27 27 27 27 29 29 27 25 25 24 24 22 20 21 22 22 21 20 19 18 17 17 17 18 17 17 16 16 17 18 17 16 15 14 14
20 21 22 23 24 25 27 29 31 30 29 31 32 29 27 26 25 23 22 21 21 21 22 23 22 20 21 21 20 20 21 21 21 20 19 19 20 21 20 19 18 17
19 22 23 24 26 27 27 29 31 30 26 28 30 27 25 25 25 23 23 23 21 20 21 21 20 20 21 21 20 21 22 23 23 23 22 21 20 22 23 22 21 20
17 20 22 22 23 25 25 26 28 27 25 26 29 25 20 20 23 24 24 22 20 19 18 17 17 17 16 16 17 20 22 23 24 23 22 20 20 21 23 23 22 22
15 16 18 18 19 19 21 22 24 23 23 23 24 21 14 12 16 19 19 18 17 15 13 12 12 12 11 12 14 16 18 20 20 19 18 18 19 19 20 21 22 23
14 15 15 15 15 15 17 18 19 18 18 17 15 13 9 9 11 12 12 12 11 10 9 10 10 10 10 11 12 13 15 16 17 17 17 17 16 16 17 18 20 23
12 14 13 13 13 14 15 16 15 15 14 13 12 10 9 9 8 8 8 8 7 8 9 9 10 11 11 12 12 13 14 15 16 17 18 18 17 16 16 16 17 20
12 13 12 12 13 14 14 14 14 14 13 12 12 11 9 9 9 9 9 9 9 9 10 11 11 12 12 12 11 12 12 13 14 16 17 18 18 17 16 15 15 18
12 13 13 13 13 14 14 13 13 13 13 12 12 11 11 10 10 11 11 11 11 12 13 13 13 13 13 12 11 12 12 12 13 13 14 15 16 17 16 15 15 17
12 14 14 13 14 14 14 14 14 13 13 13 12 12 12 12 12 13 13 13 13 13 13 13 12 12 12 11 11 11 11 12 12 12 12 12 13 14 14 13 14 16
12 13 14 13 14 15 15 15 14 13 13 12 12 12 11 12 13 13 14 14 13 13 13 12 11 12 12 12 12 12 12 12 12 13 13 12 11 11 11 11 12 15
12 12 12 12 13 15 16 15 15 14 12 10 10 10 10 10 10 10 11 12 13 14 14 14 14 14 14 14 13 13 13 12 13 13 13 12 12 11 10 11 12 16
12 13 13 13 13 14 14 14 14 14 13 10 8 9 9 9 9 9 10 11 12 14 15 15 16 16 15 15 14 14 14 13 13 13 13 12 11 10 10 12 14 16

ECMWFNIL_850_spd_024.txt.gz
Wind_Speed
9 9 8 6 4 3 3 5 6 4 3 2 1 1 1 3 5 5 4 5 6 7 8 8 8 8 8 9 10 10 10 10 9 10 9 9 9 8 8 9 9 9
15 14 11 9 7 7 5 5 4 3 2 1 0 0 2 5 6 7 7 7 6 5 6 6 6 7 8 9 10 10 10 10 10 11 10 10 10 10 10 10 10 11
21 19 16 13 11 9 8 6 5 4 3 2 1 1 2 4 6 7 7 7 6 5 4 5 6 8 8 10 11 12 12 12 12 13 13 12 12 12 11 11 11 11
26 23 18 17 15 11 9 8 7 5 4 3 2 2 2 2 4 5 6 7 6 5 4 5 6 8 9 10 11 12 13 13 13 14 13 13 13 12 12 11 11 10
26 24 20 18 16 11 10 12 11 9 7 5 4 3 2 2 2 3 4 5 5 5 4 4 4 6 7 8 9 9 10 11 12 12 11 11 12 11 10 10 9 9
24 26 23 19 17 13 13 16 16 13 11 8 6 5 4 3 3 2 2 3 4 4 3 3 2 3 4 5 6 6 6 7 7 8 8 7 8 8 8 7 6 6
24 27 25 21 18 15 14 16 17 16 14 11 9 7 6 5 4 3 3 3 3 4 4 4 3 2 2 2 3 3 3 3 3 3 4 3 3 3 3 4 4 4
24 28 27 24 21 18 16 17 18 17 16 14 12 10 9 7 6 5 5 4 3 3 3 3 3 2 2 1 0 0 0 0 1 1 1 1 1 2 2 1 1 0
25 27 27 25 24 21 19 18 19 18 17 16 15 12 10 9 7 6 6 5 5 4 3 2 2 2 2 2 2 3 3 3 3 3 4 4 4 5 5 4 4 3
23 24 24 24 24 22 21 20 19 19 18 18 17 14 12 11 9 8 8 8 7 6 5 4 4 4 3 3 3 4 5 5 5 5 5 5 6 6 6 6 6 5
20 21 21 22 22 22 22 21 20 18 19 19 17 15 14 14 13 12 11 11 10 9 8 7 7 6 6 6 6 6 6 7 6 6 6 5 5 6 7 7 8 8
18 21 21 21 21 21 21 21 20 19 20 21 18 16 16 16 15 14 13 13 13 12 12 11 10 9 9 10 9 8 9 9 8 8 7 6 6 6 7 8 9 9
18 21 23 22 21 21 21 21 20 20 22 23 20 18 18 18 17 16 15 15 15 15 15 14 13 12 12 13 12 11 11 11 11 11 11 9 8 8 10 10 11 11
16 19 22 23 22 21 21 22 22 22 22 23 23 22 21 21 20 18 17 18 18 17 17 17 17 16 16 16 15 13 13 14 15 15 15 14 12 11 12 13 14 15
17 18 19 21 21 21 22 24 24 22 22 23 24 24 25 25 23 22 20 21 22 21 20 20 19 19 19 17 16 15 16 17 18 18 19 17 15 15 15 15 16 18
16 18 19 18 18 20 23 25 24 22 22 24 24 25 27 28 27 27 24 23 24 23 22 21 20 20 19 17 17 17 18 18 19 19 20 20 18 18 18 18 17 18
12 16 19 19 17 19 22 24 23 22 23 25 25 25 27 28 28 28 27 28 26 22 22 22 19 17 18 17 17 17 17 17 18 18 20 20 20 20 20 18 17 17
11 13 16 18 19 20 22 24 24 24 24 23 23 24 25 25 25 24 24 27 27 22 21 20 16 13 14 14 14 13 13 13 14 15 16 17 17 18 18 17 16 16
12 14 15 17 18 20 21 21 21 21 20 19 20 21 18 14 15 16 15 17 20 19 17 15 12 10 9 9 9 9 10 11 12 13 14 14 15 15 16 16 16 17
12 14 16 16 17 17 17 16 15 15 15 15 16 14 8 6 9 10 9 10 12 13 11 10 9 8 7 6 7 8 9 10 11 11 12 12 13 14 15 16 17 17
10 11 12 14 15 15 15 14 14 13 11 10 10 7 6 7 7 7 8 8 9 8 8 7 7 7 6 6 7 8 9 9 9 9 10 10 10 11 12 13 14 15
8 9 9 10 12 12 12 12 11 11 9 8 8 8 8 8 7 7 8 8 8 8 8 8 8 8 8 8 8 8 8 8 8 8 9 9 9 9 9 10 11 12
8 9 9 9 10 10 10 10 9 9 9 9 9 9 9 9 9 9 9 9 9 9 9 9 9 9 9 9 8 8 7 7 7 8 8 8 9 9 8 9 9 10
6 7 9 9 10 9 10 10 10 10 10 10 10 10 9 10 10 9 9 9 10 9 10 10 10 9 9 9 9 8 8 8 8 8 9 9 9 9 9 8 8 8
8 9 10 9 8 8 10 12 11 11 11 11 11 11 11 11 10 9 8 7 7 8 9 9 10 10 10 10 10 11 10 10 9 9 9 9 10 10 10 9 8 7
12 14 15 12 9 9 11 13 12 11 11 11 10 10 10 10 8 7 7 6 6 6 7 9 10 11 12 12 13 13 13 12 11 10 10 10 10 10 10 9 8 7

ECMWFNIL_850_spd_027.txt.gz
Wind_Speed
8 7 5 4 5 3 3 4 3 3 3 5 5 5 6 8 8 7 8 9 10 10 10 9 9 9 10 10 10 10 10 10 10 11 11 11 12 12 12 13 13 12
10 9 8 7 7 4 5 4 0 1 2 5 5 5 6 7 8 8 8 9 9 9 9 8 9 10 10 10 9 9 9 10 11 12 11 11 12 12 13 14 14 14
14 14 12 9 7 6 8 7 3 3 2 4 5 6 6 7 7 7 7 8 7 7 7 8 9 10 10 10 9 9 9 10 11 12 13 13 13 13 14 15 15 16
18 17 15 12 9 8 9 9 6 4 2 3 5 5 5 6 6 6 6 6 6 6 6 7 8 9 10 10 9 9 9 10 12 12 13 14 14 14 14 14 15 15
19 18 17 14 11 10 10 10 8 6 5 3 4 4 5 6 6 6 5 5 5 5 6 6 7 8 9 9 10 10 10 10 11 11 11 12 13 13 13 13 12 13
18 19 18 15 13 13 12 11 9 9 9 7 4 4 4 6 6 6 6 5 5 5 5 6 6 7 8 8 9 9 9 9 9 10 10 10 10 10 10 10 9 9
18 19 18 14 14 14 12 11 11 13 12 9 6 5 5 6 7 7 7 6 6 5 5 5 5 6 6 6 7 7 7 7 7 7 7 7 7 7 6 6 6 5
19 19 17 15 15 15 13 12 13 15 15 12 8 7 6 6 7 7 7 6 6 5 5 4 4 5 5 5 5 5 5 5 5 5 5 5 5 4 4 4 3 3
18 18 17 16 16 16 14 13 14 16 16 14 10 9 8 7 8 8 7 7 6 6 5 5 4 4 4 4 4 3 3 3 3 3 3 3 4 4 3 3 3 2
18 18 18 17 17 18 15 14 15 17 17 16 13 12 11 9 9 9 9 8 7 6 6 5 5 5 4 3 2 1 1 0 1 1 1 1 2 2 2 3 3 3
16 17 18 18 18 19 17 16 16 16 17 18 16 14 13 11 11 11 10 10 8 7 6 6 6 5 4 3 2 2 2 2 3 2 2 2 1 1 1 2 3 4
15 16 17 17 17 18 18 19 20 17 17 17 16 16 15 13 13 13 12 11 10 10 9 8 7 7 6 6 5 5 4 4 5 5 5 5 4 3 3 3 4 5
12 13 14 15 15 15 17 21 21 19 18 17 17 18 17 15 16 16 15 14 14 13 13 12 11 10 10 9 8 7 7 7 7 7 8 8 7 7 6 5 6 7
9 10 11 12 13 13 15 19 21 20 19 19 19 20 19 17 17 17 17 16 16 16 16 15 15 14 13 12 10 10 9 9 10 10 11 11 11 11 10 9 8 8
8 9 10 11 12 14 16 17 18 19 20 20 20 21 20 19 18 18 18 17 17 17 17 17 16 17 16 14 13 13 13 13 14 14 14 14 14 15 15 14 13 12
7 8 9 10 10 13 16 17 18 19 20 22 22 22 21 20 19 19 19 19 18 18 17 17 18 19 19 17 17 18 19 18 17 17 17 17 17 17 17 17 16 15
4 7 9 11 11 12 14 16 18 20 21 23 24 24 23 23 22 21 21 20 20 19 18 16 17 19 19 19 19 21 22 21 20 19 18 18 17 17 17 16 16 17
4 6 8 10 12 13 14 14 16 18 21 23 25 25 24 23 22 22 22 23 23 24 25 23 21 20 19 20 21 21 20 18 17 17 15 14 14 13 13 13 15 16
7 8 8 9 11 13 15 15 16 17 19 21 23 24 23 21 23 24 25 26 25 23 25 27 24 19 18 19 19 18 16 14 13 13 12 12 12 12 11 12 12 14
6 7 9 10 12 13 15 16 18 19 19 20 22 21 18 17 20 22 21 22 21 17 16 19 19 16 14 15 15 13 12 11 11 11 10 10 10 10 10 11 12 13
3 3 5 7 10 12 14 15 17 17 17 18 19 16 11 10 14 14 12 12 13 12 11 12 14 14 13 13 12 11 10 10 9 9 9 9 9 9 9 9 10 12
4 4 4 4 6 8 11 13 14 14 13 13 11 10 9 10 11 11 11 11 10 10 10 11 11 11 11 10 10 9 9 9 8 8 7 7 7 7 6 7 8 9
5 5 4 3 5 6 7 9 10 10 9 8 8 8 10 11 10 10 11 11 10 11 10 10 9 10 10 10 10 9 9 8 8 7 7 6 6 5 5 6 6 7
6 6 4 2 2 5 7 8 8 8 8 8 8 9 10 11 10 10 11 11 11 11 10 9 10 10 10 10 10 10 10 9 8 8 8 7 6 5 5 5 4 5
11 11 8 6 4 5 5 6 7 8 9 9 10 10 11 12 11 10 11 12 12 11 11 10 10 10 10 11 11 11 11 10 9 9 8 7 6 5 5 4 4 4
16 16 14 13 12 9 6 6 7 9 10 11 12 12 12 12 12 12 11 11 10 10 9 9 9 9 9 9 9 10 10 10 9 9 8 7 6 6 6 6 6 5

ECMWFNIL_850_spd_030.txt.gz
Wind_Speed
11 9 7 8 10 9 7 7 8 10 10 11 11 12 13 14 13 12 13 14 13 12 11 10 11 12 12 13 12 9 8 9 8 8 8 9 9 9 10 10 9 9
11 9 7 8 9 8 6 6 6 8 9 10 11 12 14 15 15 14 14 13 12 10 10 10 10 12 12 13 12 11 11 11 12 12 12 12 12 12 12 12 12 12
12 10 8 8 9 6 4 3 5 7 8 9 11 12 14 15 15 14 13 11 10 9 9 9 10 11 12 12 12 12 12 12 13 13 13 14 14 14 14 15 15 15
13 11 9 9 9 6 3 2 5 8 8 8 11 12 14 15 14 13 12 11 10 9 9 10 10 11 11 12 12 12 12 12 13 13 13 14 15 15 16 17 16 16
13 11 9 10 10 8 5 4 7 10 9 10 11 12 13 14 13 12 12 11 10 10 10 10 11 11 12 12 12 12 12 12 13 13 14 14 15 15 16 16 16 16
15 12 11 11 11 9 6 5 8 10 10 11 12 12 12 13 12 12 12 11 11 11 11 11 12 12 12 13 13 13 13 13 13 14 13 13 14 14 14 14 14 14
17 14 12 11 11 9 7 7 9 10 10 11 13 13 12 12 12 12 12 12 12 12 12 12 12 13 13 13 13 13 13 13 13 12 11 11 12 11 11 11 10 10
18 17 15 13 12 10 9 9 9 11 11 11 12 13 13 13 13 12 12 12 12 12 12 12 12 12 12 12 12 12 12 12 12 11 9 9 10 9 9 8 8 7
16 15 15 15 13 10 11 10 10 12 13 11 11 12 13 13 13 13 12 12 12 12 11 11 11 11 11 11 11 10 10 10 11 10 9 9 8 8 7 7 7 6
11 12 14 15 13 12 12 12 12 13 14 13 11 10 12 13 13 13 13 12 12 11 11 11 11 10 10 10 10 10 9 8 8 9 9 8 8 8 7 7 6 6
8 10 13 14 13 13 13 13 14 13 14 15 14 11 11 12 12 13 13 13 12 12 12 12 11 11 10 10 10 10 9 8 7 7 7 7 8 8 8 7 7 6
8 10 13 13 13 13 13 15 16 14 14 15 15 13 13 12 12 12 12 12 12 12 12 12 12 12 11 11 10 10 10 9 8 7 7 7 7 7 8 8 7 7
6 9 12 13 13 13 15 17 18 16 15 15 16 15 14 14 13 13 13 13 13 13 13 13 13 13 12 12 11 10 10 9 8 7 7 7 7 7 7 8 8 8
4 6 9 10 11 12 14 16 18 18 17 17 17 16 16 15 15 15 15 15 15 15 15 15 14 14 14 13 11 11 11 9 8 8 7 8 8 9 10 10 10 10
3 4 6 8 9 11 12 14 15 17 19 20 18 17 16 17 17 17 16 16 17 17 17 17 16 16 16 15 13 13 12 11 10 9 9 10 10 11 12 13 13 13
2 3 4 6 7 8 11 13 12 13 17 19 19 18 17 17 18 18 16 15 16 17 17 17 18 19 19 17 16 15 14 13 13 14 14 14 14 14 15 15 15 15
1 1 2 4 6 7 9 11 12 13 15 17 19 19 19 19 19 19 17 17 17 17 17 18 19 21 20 19 18 18 17 17 18 18 19 18 18 18 17 15 13 13
0 1 2 3 4 6 8 10 12 14 15 16 17 18 20 20 20 20 19 18 17 17 18 19 20 22 22 22 22 21 20 21 21 21 20 19 19 18 15 12 10 10
1 1 3 4 5 6 8 9 11 13 15 16 16 18 19 19 20 20 20 19 17 17 17 18 20 22 23 25 27 26 24 23 22 21 18 16 16 15 13 12 11 10
3 2 2 4 6 7 8 9 10 11 13 14 15 17 17 16 16 18 21 22 21 20 19 20 22 24 25 27 28 27 25 24 22 19 16 14 13 13 12 12 11 10
2 2 2 3 4 6 7 8 9 11 12 13 14 16 17 16 17 21 25 27 27 26 24 23 22 23 24 23 22 20 18 17 17 16 14 12 11 11 10 10 11 11
3 3 4 4 5 5 5 7 9 10 11 11 12 12 13 15 19 21 22 22 22 22 22 19 17 17 17 16 15 14 13 13 13 12 11 11 11 10 9 9 9 8
5 5 6 6 7 6 6 6 7 8 9 10 9 8 8 12 16 16 14 13 14 14 14 13 12 12 12 13 13 13 13 12 11 10 10 11 10 10 9 8 7 6
6 6 6 6 6 6 7 8 7 7 7 7 7 7 10 14 15 14 13 12 12 12 12 11 11 11 12 12 13 13 13 12 10 10 11 11 10 10 9 8 7 6
9 9 9 9 8 8 8 8 8 9 9 8 8 9 12 14 14 13 13 13 12 12 12 11 11 11 12 13 13 13 13 12 11 10 11 10 10 11 10 9 8 7
11 12 12 13 13 13 13 11 10 10 10 10 10 10 11 12 12 13 14 14 13 13 14 13 13 13 14 13 14 14 14 14 12 10 11 11 11 11 11 10 9 7

ECMWFNIL_850_spd_033.txt.gz
Wind_Speed
12 11 12 12 11 9 9 8 6 6 6 6 6 6 6 7 7 7 8 9 7 7 7 6 7 8 9 11 10 8 8 8 8 7 7 6 6 7 8 10 10 9
12 12 11 11 10 9 8 7 7 6 6 6 7 7 7 8 8 9 10 10 9 8 8 8 9 9 9 10 10 9 8 8 7 7 7 7 6 7 7 10 11 10
12 12 11 11 10 10 8 7 6 6 6 8 8 8 8 9 10 11 10 9 8 8 8 8 8 8 9 10 10 10 10 10 9 9 9 9 9 9 9 10 12 11
12 12 11 11 11 10 9 7 5 5 7 9 9 9 10 11 11 11 9 8 7 7 8 8 8 8 8 9 9 9 10 9 10 10 9 10 10 11 11 12 12 11
13 12 11 10 10 9 8 5 3 6 8 9 9 10 11 12 11 10 9 8 7 7 7 8 8 8 8 8 8 9 9 9 9 9 9 10 11 11 12 13 13 13
13 12 10 11 10 8 6 3 3 8 10 10 10 11 11 11 10 9 8 8 8 7 8 8 8 9 9 10 10 10 9 9 10 10 10 11 11 12 12 12 13 13
14 13 12 12 9 7 7 5 6 11 12 11 12 11 11 11 9 9 9 8 8 8 9 9 10 11 11 11 11 11 11 12 12 11 10 11 12 12 12 11 10 10
15 15 14 12 8 6 8 7 8 12 12 12 13 12 12 11 10 10 9 8 9 8 9 10 11 12 12 12 12 13 14 14 12 9 10 12 12 10 10 10 9 8
14 14 13 11 9 8 10 9 10 13 12 12 13 12 12 11 11 11 10 10 9 9 9 10 10 12 12 12 13 14 14 14 12 10 11 12 11 8 8 9 9 7
13 13 12 11 10 11 12 11 11 13 12 12 12 12 12 11 11 12 11 11 10 9 10 10 10 11 11 11 12 12 12 12 12 11 11 10 9 7 7 7 7 7
12 11 11 11 12 14 13 12 12 12 12 13 12 12 13 12 12 12 12 12 11 11 11 10 10 11 11 11 11 11 10 10 10 10 10 10 9 9 9 8 8 7
10 10 11 12 14 14 12 12 12 12 13 13 12 13 13 13 13 13 13 12 12 12 12 11 11 11 11 11 11 11 11 10 10 10 10 9 9 10 10 9 9 9
8 9 10 11 12 13 12 12 12 12 13 13 13 13 14 14 13 14 14 13 12 12 13 12 12 12 12 12 12 12 12 12 12 11 10 10 10 9 9 10 10 10
7 8 9 10 11 12 12 13 12 13 13 13 13 14 14 14 14 14 14 14 13 13 13 13 14 13 13 13 13 13 13 13 13 12 12 12 12 12 11 12 11 11
7 8 8 9 11 12 13 14 14 14 14 14 14 14 15 14 14 14 15 14 14 15 15 15 15 15 15 15 14 14 14 14 14 14 13 13 13 13 14 14 14 14
6 6 6 6 8 9 11 12 13 14 15 14 14 14 14 15 14 14 15 15 15 16 16 17 17 17 18 19 18 16 15 15 15 16 15 15 15 14 15 15 15 16
4 4 5 5 5 6 7 8 9 11 13 15 15 15 15 15 16 16 16 16 16 17 17 19 20 21 22 22 21 20 19 18 18 18 17 17 17 17 17 18 18 18
3 3 4 4 4 4 5 7 9 9 11 13 16 18 18 18 19 18 17 16 17 18 18 20 22 22 22 22 22 23 22 21 20 19 19 20 20 21 21 21 22 20
3 3 2 2 3 4 5 7 9 10 11 12 15 18 20 20 20 19 19 18 19 19 19 19 20 20 20 21 22 22 23 22 21 20 20 21 23 24 23 22 21 19
4 3 2 1 2 3 3 6 7 9 12 13 14 16 18 19 19 20 20 21 22 22 22 22 22 21 21 22 22 22 23 23 23 20 20 21 23 24 23 19 16 14
5 4 3 1 1 2 3 5 6 8 11 13 14 15 16 18 19 19 20 21 22 22 22 23 24 23 23 24 23 23 25 27 26 24 24 25 25 26 24 19 13 9
5 3 3 2 1 2 3 5 7 9 10 11 14 15 15 17 19 19 22 24 23 23 24 24 24 24 25 25 25 25 26 26 24 23 23 23 22 20 18 14 9 8
5 4 4 3 3 3 4 4 6 8 9 10 13 14 14 16 17 17 20 22 23 25 26 24 25 26 26 26 25 24 22 20 17 17 16 15 14 13 11 10 11 11
6 6 5 5 5 4 5 5 6 7 9 10 12 13 14 14 15 16 17 17 19 21 22 21 22 22 21 20 19 18 17 16 14 12 12 12 12 10 10 11 13 11
7 7 7 7 6 6 6 7 7 8 9 10 12 13 13 14 15 15 16 17 18 19 19 19 18 16 15 16 16 16 16 17 14 12 12 13 12 10 10 12 12 10
9 8 8 8 9 9 9 9 9 10 10 11 12 13 14 14 14 15 17 18 18 17 18 16 14 14 14 15 15 15 16 17 15 13 13 13 12 11 10 10 11 11

ECMWFNIL_850_spd_036.txt.gz
Wind_Speed
18 15 15 12 11 10 9 8 7 5 5 7 8 8 9 8 7 9 10 10 9 7 8 8 11 14 14 12 10 9 9 9 9 9 9 10 12 15 18 16 15 16
17 16 16 14 12 12 11 10 8 7 7 8 9 9 8 7 6 7 8 9 9 10 11 10 11 13 15 15 12 10 10 10 10 10 9 9 11 14 17 16 14 15
17 17 17 15 14 13 13 11 9 9 9 9 10 8 5 5 7 10 10 11 11 11 11 11 10 10 12 12 11 11 13 13 12 11 10 11 13 15 17 16 14 14
19 17 16 16 16 15 12 10 8 9 10 10 9 6 4 7 10 11 10 9 8 8 10 11 10 10 11 10 10 12 12 12 12 12 13 14 16 18 18 16 15 14
20 18 18 17 16 15 11 8 6 8 10 10 8 5 6 8 9 8 7 6 5 6 7 8 9 10 10 9 10 10 11 12 12 11 13 14 15 17 17 15 15 16
21 20 20 19 16 13 10 7 5 8 10 8 7 6 7 8 8 6 5 4 4 5 6 7 8 9 9 9 9 9 10 11 11 11 13 13 14 15 16 16 18 18
22 21 20 17 15 12 9 7 6 8 9 7 7 8 7 8 7 5 4 4 5 6 7 8 9 9 9 10 10 10 10 12 12 12 14 15 15 15 14 14 16 16
22 21 19 16 14 11 8 8 8 9 10 8 9 9 8 9 8 6 6 6 7 7 7 8 9 10 11 10 10 12 13 12 10 11 14 15 15 14 13 13 13 12
20 19 17 16 14 10 9 10 9 9 9 9 9 9 9 9 8 7 8 8 8 8 8 9 10 11 10 9 11 14 14 11 9 11 14 14 13 13 12 12 10 8
19 17 15 16 14 11 10 11 10 10 9 10 10 9 11 10 8 8 9 8 8 7 7 8 9 10 10 10 11 13 13 11 10 12 13 12 11 9 9 9 7 5
18 17 14 14 14 13 11 10 10 10 9 10 10 9 11 10 8 9 9 9 9 8 7 7 7 8 9 10 11 12 11 11 10 11 11 11 10 7 8 8 7 6
17 17 15 13 13 15 14 10 11 11 10 10 9 9 10 10 9 10 9 9 9 8 8 7 6 7 8 8 9 9 10 9 9 10 10 10 10 9 9 8 8 7
14 14 14 13 13 16 17 13 12 11 11 10 8 8 10 10 9 10 10 9 9 9 9 8 8 8 8 8 8 9 9 9 9 10 10 10 11 11 10 10 9 8
10 11 11 12 14 16 16 15 13 13 12 12 10 8 9 10 10 10 11 11 9 9 10 10 10 10 10 10 10 10 11 11 11 12 11 12 13 12 11 11 9 7
8 9 9 11 13 14 14 15 15 14 14 14 14 12 10 10 10 10 11 12 11 10 11 12 12 12 12 12 12 12 12 13 13 13 13 12 13 13 11 10 9 9
5 7 8 10 12 12 12 14 15 14 13 14 17 17 13 12 12 12 12 13 13 13 13 13 13 13 12 12 13 13 14 15 15 14 14 13 14 15 14 13 13 13
4 4 5 7 9 10 10 11 13 13 12 13 15 17 16 15 15 14 14 15 16 16 15 15 15 15 15 16 17 16 17 18 17 15 16 16 16 17 18 19 19 16
5 4 3 4 5 6 7 8 9 10 12 13 14 16 18 18 18 17 16 16 18 18 17 17 19 20 21 21 20 20 20 21 20 18 18 19 19 19 20 19 17 15
6 4 2 2 3 4 5 6 6 7 8 10 11 13 16 18 20 21 20 20 20 20 18 19 21 23 24 23 23 23 23 23 23 23 22 22 22 22 21 19 17 18
8 5 3 2 0 1 2 3 4 6 8 10 11 12 15 19 23 24 23 23 23 22 21 21 23 24 24 24 24 25 25 25 26 26 27 26 25 25 24 22 21 21
8 7 5 4 3 2 2 3 4 6 8 10 11 11 13 18 21 23 23 24 24 24 23 24 25 26 25 25 25 25 25 26 27 27 28 28 27 27 26 24 24 24
8 7 6 5 4 3 3 4 5 7 8 8 8 9 10 13 16 18 20 21 23 24 24 25 28 28 26 26 26 26 26 27 28 28 28 28 27 27 25 23 24 23
6 6 5 4 3 5 6 5 5 6 8 10 10 9 10 11 13 14 16 17 18 21 23 26 29 29 26 26 27 28 28 28 28 29 29 28 27 24 20 17 17 16
7 6 5 4 3 4 6 6 6 6 7 9 11 11 11 12 13 14 15 15 16 18 20 23 26 26 24 23 25 27 28 28 29 30 30 28 24 19 14 12 13 13
12 10 9 9 8 8 8 7 7 8 8 9 10 12 13 13 14 15 16 16 16 16 17 19 22 22 21 22 25 26 27 29 29 29 27 23 19 15 13 13 14 13
15 12 11 12 14 15 15 14 13 12 12 12 11 12 13 14 15 16 16 17 18 18 19 21 23 22 21 22 23 23 25 26 26 24 23 20 16 15 15 17 16 14

ECMWFNIL_850_spd_039.txt.gz
Wind_Speed
17 16 15 14 16 16 14 12 10 9 9 8 6 5 5 5 6 9 11 11 9 7 7 11 11 8 7 7 7 7 9 9 9 11 14 17 17 16 16 16 17 17
18 17 17 16 17 15 13 11 10 11 11 10 8 7 6 5 5 7 10 10 8 6 10 14 13 10 10 10 8 7 10 12 12 13 16 19 18 16 16 16 15 16
18 17 18 18 17 16 14 12 12 12 11 10 9 8 7 6 6 8 10 10 8 9 12 15 15 13 13 13 10 8 11 13 13 15 17 19 19 18 18 16 15 16
16 16 18 18 17 17 16 14 13 12 12 11 9 8 6 6 9 10 10 10 10 10 11 12 14 15 15 14 11 10 12 12 13 15 19 20 19 19 20 19 18 18
16 16 18 19 17 16 16 14 13 12 11 10 8 6 6 9 11 10 10 10 10 10 9 9 11 13 13 12 11 12 13 12 12 16 19 20 18 17 17 17 18 17
17 17 19 20 17 15 15 14 12 11 10 9 7 6 8 11 10 9 8 8 9 9 9 9 9 10 10 10 12 13 13 11 12 16 18 18 16 15 15 15 16 16
18 18 19 20 17 14 14 13 10 9 9 8 7 7 10 11 9 8 7 7 8 9 11 11 10 10 12 12 13 14 14 14 14 15 16 16 16 16 17 17 17 17
18 19 20 19 16 14 14 11 9 9 9 8 8 10 11 10 8 7 7 8 9 9 12 12 11 12 13 13 14 15 16 16 17 18 18 18 18 19 19 18 17 19
18 20 21 19 16 15 13 10 9 10 9 9 10 11 12 11 8 7 9 9 8 9 12 12 13 14 14 14 16 17 16 16 18 20 20 19 20 20 19 17 16 17
16 19 20 19 16 14 12 11 10 10 10 10 11 12 14 11 8 9 11 10 8 9 12 13 15 14 13 16 19 16 15 17 19 21 20 19 19 20 18 16 14 14
18 19 17 16 15 12 11 12 11 10 11 12 12 14 16 13 10 10 12 10 9 10 11 12 13 12 12 17 20 17 16 17 19 20 18 17 17 17 16 14 13 12
19 18 16 16 15 12 11 12 11 11 13 13 12 15 17 14 11 12 13 11 9 9 8 9 10 10 12 16 19 17 16 16 18 19 17 15 15 14 13 12 11 10
16 16 16 17 16 13 12 11 9 9 12 12 12 14 16 14 11 13 14 12 10 10 8 6 7 9 10 13 15 14 14 13 15 17 17 15 13 11 10 10 9 9
17 17 16 16 16 15 13 11 11 10 11 12 11 11 14 13 11 13 14 12 11 11 10 7 6 8 9 10 12 12 12 13 13 15 15 15 13 12 10 9 9 9
18 18 16 14 17 17 15 14 16 14 14 15 13 12 12 11 11 12 13 13 12 12 12 10 9 9 9 10 11 12 12 12 12 13 13 13 14 13 12 12 11 12
13 14 14 14 18 20 18 17 18 17 17 18 16 14 13 11 11 12 12 14 15 13 13 13 12 11 11 11 12 12 12 12 12 12 12 12 13 15 14 13 14 14
8 9 11 12 14 17 17 19 20 19 19 19 18 17 15 14 14 13 12 14 16 15 14 13 14 14 14 14 13 13 13 13 12 12 11 12 14 15 14 13 14 14
9 8 9 9 9 12 16 19 19 17 16 18 19 18 17 16 16 16 15 14 15 17 15 14 14 15 16 16 15 15 15 14 14 14 14 15 16 16 14 14 15 15
12 10 9 6 5 6 8 10 10 10 11 13 15 18 19 18 17 17 17 16 16 17 18 17 17 17 18 18 18 18 17 17 17 17 18 19 19 18 18 17 17 17
16 15 14 10 8 7 4 2 0 3 5 6 9 13 16 18 19 19 19 19 18 18 19 21 21 21 22 22 22 22 22 21 21 21 21 22 23 23 23 21 20 20
15 14 14 13 12 10 8 6 6 4 3 3 6 8 10 13 16 19 21 22 22 21 21 22 22 23 24 24 24 25 25 24 24 24 24 25 26 27 26 24 23 23
9 8 9 9 9 8 8 8 6 6 5 4 6 7 8 10 12 15 19 21 23 24 23 24 24 24 25 25 26 26 26 26 26 26 27 28 29 29 28 26 26 26
5 4 3 3 3 2 3 4 4 4 5 4 5 6 6 8 10 11 14 16 18 20 23 24 25 26 26 26 26 27 27 28 28 27 28 29 29 30 29 28 27 27
4 4 4 3 3 4 4 3 3 2 1 3 4 6 6 8 10 11 12 13 14 17 19 21 23 24 24 24 24 25 27 28 29 28 28 28 29 29 29 28 28 29
9 9 9 9 9 9 9 9 10 10 9 8 7 7 6 7 10 11 12 14 16 18 18 20 21 22 21 21 20 21 23 25 27 28 28 28 29 30 30 28 27 26
13 14 14 13 13 13 13 13 13 13 14 14 14 13 12 11 10 12 13 14 16 18 19 20 22 22 22 21 19 20 22 23 24 26 27 28 29 31 31 28 24 20

ECMWFNIL_850_spd_042.txt.gz
Wind_Speed
18 16 14 14 16 16 15 14 12 10 8 7 5 4 6 8 10 10 9 8 8 8 8 8 7 6 6 8 10 10 9 9 9 9 10 12 13 12 12 14 15 16
18 16 14 16 18 17 16 13 11 8 7 6 4 3 3 4 6 9 10 10 9 7 8 9 8 6 5 7 9 10 10 11 11 11 12 14 15 15 14 14 14 16
19 16 15 17 19 18 16 12 9 7 6 6 5 4 3 3 3 7 10 11 9 7 9 11 10 8 6 7 10 11 12 13 12 13 13 14 16 17 16 14 13 14
18 15 14 16 18 17 14 11 9 8 7 6 6 5 5 5 6 7 10 10 9 10 12 12 10 9 7 7 10 13 14 14 14 14 14 13 15 17 16 14 13 13
17 15 15 17 18 15 12 11 9 8 7 6 6 6 7 7 6 8 10 10 10 12 14 14 12 11 10 8 8 12 15 16 17 16 15 14 14 15 14 13 13 13
18 15 15 16 15 13 11 10 8 7 7 7 7 6 6 6 7 10 11 11 11 11 12 14 14 13 13 10 8 11 15 17 18 18 17 17 16 15 14 14 14 14
18 15 15 15 14 12 10 10 8 7 7 7 6 6 6 8 9 9 9 9 9 10 10 11 12 13 13 12 11 13 15 17 19 19 19 18 18 18 17 16 16 17
16 17 16 14 12 11 9 10 9 7 7 6 5 6 8 9 8 8 8 9 9 9 9 9 10 11 12 13 13 14 15 17 20 20 18 17 18 20 20 20 19 19
16 18 16 13 11 9 8 9 9 7 6 5 5 7 8 8 6 6 8 8 10 10 10 10 11 11 13 14 14 15 16 18 20 18 16 17 18 20 20 21 21 21
17 17 14 13 12 9 8 9 8 6 5 4 5 7 8 7 5 5 6 7 9 11 11 11 12 12 14 15 15 16 17 19 20 17 17 18 19 19 19 19 20 20
19 18 16 14 13 10 9 9 8 7 6 5 6 8 8 7 5 5 5 5 6 10 12 12 13 13 15 16 16 16 17 19 19 18 18 19 18 17 17 17 18 18
20 21 20 17 14 13 11 10 9 8 7 7 7 9 9 8 6 6 6 4 4 8 11 12 12 13 16 17 16 16 18 19 19 18 19 19 18 17 16 15 15 15
17 21 22 18 16 17 15 12 9 8 8 8 9 10 11 10 9 8 8 7 5 5 8 9 9 12 17 18 15 16 17 18 19 18 18 18 17 16 15 14 14 13
16 19 21 19 19 20 17 13 11 9 9 10 10 12 13 11 9 9 10 9 7 5 5 5 6 10 17 18 15 15 16 17 18 17 17 17 17 17 17 16 15 15
16 19 20 20 22 22 17 15 13 11 10 11 11 13 14 13 10 10 11 11 10 9 7 6 5 7 14 17 16 14 15 17 18 18 18 18 18 18 18 18 17 16
14 16 18 20 21 21 18 17 17 14 13 13 12 12 14 13 11 11 12 12 12 12 11 11 9 7 8 12 13 13 14 16 18 20 20 19 19 18 18 18 17 16
12 15 17 19 19 19 19 18 19 18 15 15 14 13 13 13 12 13 14 14 13 14 14 14 14 12 9 9 10 11 11 13 17 20 22 21 20 20 19 18 18 17
8 11 14 15 17 19 19 18 19 19 17 17 16 14 13 14 14 14 14 14 14 15 15 15 14 15 15 13 11 12 12 13 14 16 19 20 20 20 20 20 19 18
12 10 9 9 10 12 12 12 16 18 17 17 17 15 12 12 14 16 16 15 15 16 16 16 14 15 17 17 16 15 15 15 16 16 17 18 19 19 20 20 20 19
17 16 15 13 11 10 8 8 11 13 11 11 14 16 15 13 14 17 18 17 17 16 17 18 16 14 16 18 18 18 18 18 18 19 20 21 21 22 21 21 21 21
17 16 16 14 12 10 9 10 10 8 6 5 4 8 13 14 14 17 20 20 20 19 19 20 20 19 18 18 19 20 20 20 20 21 23 24 24 25 25 24 24 24
15 14 13 12 10 9 8 7 7 6 6 5 2 2 7 11 13 15 18 20 22 23 23 22 22 22 22 22 22 23 23 23 24 24 25 26 27 29 29 28 27 26
11 10 9 9 8 7 6 6 6 5 5 6 6 7 8 10 11 13 14 16 18 21 23 25 25 24 24 25 25 26 26 27 27 28 29 30 31 32 31 29 28 28
7 7 7 7 7 6 6 6 6 7 8 9 9 9 10 10 10 11 11 12 13 15 18 21 25 26 27 27 27 28 28 29 30 30 31 32 33 33 32 31 30 30
5 5 6 8 8 9 9 10 10 10 11 12 12 13 13 14 14 14 14 13 12 13 14 15 18 21 24 27 28 29 30 31 31 32 33 34 34 34 34 33 32 31
8 8 9 9 10 12 13 14 15 15 16 16 17 17 18 18 18 19 19 18 17 16 16 16 17 18 19 21 22 23 25 27 28 30 30 30 31 32 32 31 30 31

ECMWFNIL_850_spd_045.txt.gz
Wind_Speed
16 14 12 12 13 12 11 10 9 8 5 3 3 3 3 5 5 5 5 4 4 6 6 6 5 6 9 10 10 9 8 8 8 10 10 10 10 10 10 11 12 13
16 15 13 13 13 12 12 11 9 7 5 4 4 2 1 3 5 6 7 6 6 7 7 7 7 7 9 11 12 10 8 8 8 10 10 10 10 10 10 11 12 13
17 15 12 11 12 13 13 12 9 7 5 5 4 2 2 3 4 6 7 8 8 8 8 9 8 7 7 10 12 11 10 9 9 9 11 11 11 11 11 12 13 14
17 14 11 11 13 15 15 13 10 7 5 4 3 3 4 4 4 4 7 10 10 9 9 10 9 6 6 9 12 11 11 11 10 10 12 13 12 12 13 14 14 14
18 15 12 12 14 16 16 13 9 6 4 4 4 4 5 6 6 5 6 10 11 10 10 11 11 7 6 9 11 11 11 12 11 12 13 14 13 12 12 13 14 14
19 16 13 12 15 16 15 11 7 5 4 3 5 5 6 7 7 5 5 9 9 9 9 10 11 9 7 8 9 10 11 11 11 11 12 13 13 11 10 10 11 14
19 17 13 13 15 15 12 10 7 5 5 4 5 6 6 5 4 5 7 8 8 8 9 10 10 10 9 8 8 9 11 12 11 9 10 11 11 10 9 9 10 14
22 19 15 13 15 14 11 10 8 6 5 5 5 6 5 4 6 7 8 8 8 8 9 10 11 11 11 9 8 10 12 13 13 11 10 10 10 9 9 9 10 14
21 18 16 15 14 13 11 10 9 7 5 5 6 6 5 7 8 8 8 8 8 8 8 9 10 12 12 11 9 10 13 14 14 13 12 12 11 11 10 10 10 12
20 18 17 17 15 15 12 10 8 6 5 5 5 4 6 8 8 8 8 8 9 9 8 8 8 9 10 10 9 11 13 14 15 15 14 13 13 13 13 12 11 11
21 19 19 19 18 18 14 10 8 5 3 4 4 5 7 7 7 7 7 7 8 9 9 8 8 8 9 10 10 11 13 14 15 15 14 13 13 14 15 15 14 13
22 21 22 22 22 21 17 13 9 5 2 3 4 6 7 6 6 6 5 3 4 7 9 9 9 9 9 10 11 12 13 15 15 14 13 12 12 13 16 17 17 16
24 25 25 24 22 20 18 13 8 5 3 3 5 7 7 5 4 4 4 3 2 2 6 9 9 10 11 11 11 11 12 14 15 14 13 14 14 13 14 16 17 18
27 27 26 24 21 16 16 14 10 7 5 5 6 7 7 5 3 3 3 3 2 1 3 5 7 9 12 13 12 11 13 14 15 14 14 16 15 14 14 15 16 17
26 23 23 24 23 18 17 17 13 10 8 8 8 9 8 7 6 5 5 5 4 3 2 3 3 6 11 13 12 12 13 14 15 15 15 16 16 15 15 16 16 16
21 21 22 23 22 20 19 17 14 13 11 10 10 10 9 9 8 7 7 7 6 6 5 4 3 3 6 10 11 12 13 14 15 15 16 16 17 17 18 17 17 17
16 17 18 19 18 18 18 17 15 14 12 12 12 11 10 11 10 9 9 9 9 8 8 7 6 4 4 6 8 9 11 13 15 16 16 17 17 18 19 19 19 18
13 14 14 14 16 16 16 15 15 14 13 12 12 11 11 12 11 11 11 11 11 11 11 10 9 8 8 8 8 8 9 11 13 15 16 18 19 19 19 19 19 19
13 14 14 14 15 15 15 14 14 14 13 12 11 10 10 11 13 14 13 13 13 13 13 12 11 11 11 12 13 13 12 11 12 13 14 16 18 19 20 20 20 19
13 12 12 13 13 13 13 14 14 13 13 13 13 13 12 12 13 15 15 15 15 14 14 14 13 13 13 13 14 16 17 16 15 15 15 15 16 18 19 20 20 19
15 13 12 11 10 10 11 12 12 12 12 14 16 17 17 17 16 16 17 17 17 17 17 16 15 16 16 15 15 16 18 20 21 20 19 19 19 20 20 20 21 21
16 14 13 12 10 9 10 10 10 10 11 13 15 15 17 18 19 18 18 17 17 18 19 19 18 17 17 17 17 17 18 20 22 24 24 24 24 24 24 24 24 24
13 12 12 12 10 9 9 9 10 10 10 12 13 13 12 14 16 17 17 17 17 19 21 22 21 20 19 19 18 18 18 19 22 24 24 25 26 26 26 27 27 27
7 6 6 7 6 6 6 6 7 7 8 9 10 10 10 11 12 13 13 15 16 18 21 23 24 25 24 23 22 21 20 20 22 24 25 26 26 27 28 29 29 28
2 1 0 1 2 3 4 4 5 6 8 9 10 10 11 11 12 12 13 13 14 16 18 21 24 25 26 28 28 27 26 25 24 24 25 27 29 30 31 31 28 26
4 5 6 7 7 8 9 9 10 11 11 12 12 13 14 14 15 15 15 15 16 16 17 19 21 23 24 26 28 29 30 29 28 26 25 25 27 29 31 31 27 25

ECMWFNIL_850_spd_048.txt.gz
Wind_Speed
13 11 9 6 5 7 9 9 7 5 3 3 2 2 1 0 1 1 1 2 3 5 5 5 3 2 5 9 9 8 7 7 7 8 8 9 10 11 11 11 10 11
12 11 9 7 6 9 9 7 5 4 3 2 2 2 2 1 1 1 1 1 2 3 4 4 4 3 4 6 8 8 8 7 7 8 8 8 9 9 10 10 10 12
13 11 8 7 7 9 9 7 6 5 3 2 2 2 2 2 1 2 2 3 3 3 4 5 5 4 4 5 7 8 7 7 7 8 8 8 8 8 8 9 11 13
12 10 8 8 9 9 8 8 8 6 4 3 2 0 1 2 2 2 2 4 6 5 5 5 6 5 5 5 6 7 7 6 6 7 8 7 7 8 7 8 11 13
12 11 11 11 11 11 10 9 9 7 4 3 2 1 2 3 4 3 2 4 6 7 6 7 7 6 5 5 6 7 6 5 5 6 6 6 6 6 6 6 9 12
14 14 13 11 11 10 10 10 9 6 4 3 2 1 3 4 5 4 3 4 6 7 7 8 8 6 5 5 7 7 6 5 5 6 6 5 4 4 4 4 6 10
15 14 13 11 10 10 12 12 9 6 4 3 2 2 3 5 5 4 3 4 5 6 7 8 9 7 6 7 7 8 7 6 6 7 7 5 4 4 2 2 4 7
15 15 12 10 10 12 14 13 9 5 3 2 2 2 4 4 3 3 3 4 5 6 6 7 8 7 7 7 7 8 8 7 7 7 6 5 5 5 3 2 4 7
17 16 14 11 11 13 14 12 8 5 3 2 2 3 4 4 4 4 4 5 5 5 5 6 7 7 8 7 7 8 8 8 7 6 5 4 5 4 4 3 5 10
19 19 16 14 14 14 13 10 7 6 4 2 2 3 4 4 5 5 5 6 6 6 6 6 7 8 9 9 8 7 8 8 8 7 6 5 5 4 4 4 6 10
21 21 18 16 15 15 13 11 9 7 6 3 2 2 4 5 5 5 6 7 7 8 7 6 6 6 7 9 8 8 9 9 9 9 9 8 8 7 6 5 6 8
22 22 20 17 17 16 15 14 12 10 8 5 4 3 4 4 3 3 3 3 5 6 7 7 6 5 4 5 7 9 10 10 11 11 12 11 11 10 10 9 7 7
23 24 21 19 20 19 18 16 13 10 9 8 7 6 4 3 3 3 3 2 2 1 3 6 6 6 5 4 6 8 9 10 12 13 12 11 11 11 12 12 11 10
24 23 21 22 22 21 20 19 15 10 7 6 7 7 5 3 2 2 2 2 2 3 1 2 5 6 6 6 6 7 7 8 11 13 12 11 10 9 11 13 15 14
22 21 21 22 22 19 19 20 17 11 5 3 4 6 7 5 4 3 3 2 2 1 2 2 1 2 5 6 7 7 6 7 9 12 12 11 11 11 11 12 14 15
20 19 19 19 18 17 16 16 18 18 13 10 11 9 8 8 7 6 6 5 4 2 1 1 2 1 1 4 7 7 7 7 9 11 12 12 13 13 13 13 13 15
16 17 16 15 14 14 12 11 14 18 16 14 13 10 9 10 10 8 8 7 6 4 3 2 1 2 2 3 4 6 7 8 9 10 12 12 13 14 14 13 13 14
13 15 14 13 12 13 12 12 13 15 15 14 13 11 11 11 11 10 9 8 7 6 5 4 3 4 4 4 5 5 6 7 8 9 10 11 12 14 14 14 15 15
11 13 14 13 13 14 15 15 15 14 15 14 13 12 13 12 12 12 10 9 8 8 7 7 6 6 7 7 7 7 8 8 8 8 9 9 10 11 13 14 15 16
9 11 13 14 14 14 16 17 16 16 16 16 14 13 13 12 12 12 11 11 10 10 9 10 9 9 9 9 9 9 10 11 11 11 11 10 10 11 11 12 13 14
10 10 11 11 12 12 14 15 16 15 16 17 16 15 14 13 11 11 11 12 12 12 12 12 12 12 12 12 12 12 12 13 14 15 15 15 15 14 14 14 13 14
14 12 11 10 9 9 11 12 13 14 14 15 15 15 14 13 12 12 11 12 12 12 13 13 14 14 14 14 14 14 15 15 16 17 18 19 19 19 19 19 18 19
15 14 13 11 10 8 8 9 10 11 12 11 12 12 12 11 12 12 12 12 12 12 13 14 15 16 16 17 17 17 17 18 18 19 20 21 21 22 23 24 24 25
12 11 11 10 9 8 8 8 8 8 9 9 9 10 10 10 10 9 10 11 12 13 13 14 15 17 18 19 20 20 20 21 21 22 22 23 23 24 25 26 27 27
7 6 6 5 4 4 4 4 4 5 5 6 7 7 8 8 8 8 9 10 11 12 13 13 14 15 16 18 19 20 21 22 23 24 24 25 26 26 27 28 28 27
4 3 2 1 1 2 2 3 4 5 5 6 8 9 9 10 10 11 11 12 12 13 14 15 15 15 16 17 18 19 20 21 23 24 26 27 28 29 30 31 31 29

ECMWFNIL_850_spd_051.txt.gz
Wind_Speed
19 19 17 16 15 14 15 15 14 13 11 9 8 8 8 8 9 9 9 9 8 7 6 5 3 1 2 6 8 7 6 6 6 6 7 7 8 9 10 10 10 10
19 17 15 14 14 15 15 14 14 13 10 8 8 8 8 8 8 8 9 10 9 8 7 5 4 2 2 5 7 7 6 6 5 6 6 7 7 8 8 9 9 9
18 15 14 12 13 15 15 15 14 12 9 8 9 8 7 7 7 7 8 9 9 8 7 5 4 3 3 4 6 7 6 5 5 5 5 6 6 6 6 7 8 9
16 14 13 11 11 13 14 14 14 11 9 8 8 7 7 7 6 6 7 8 8 7 7 6 5 4 3 3 4 6 6 5 5 5 5 4 4 3 4 5 7 10
15 14 13 11 11 12 13 14 13 10 9 8 7 6 6 5 5 5 6 7 8 7 6 6 6 4 3 3 3 4 5 5 5 5 5 4 2 1 1 3 5 10
15 14 14 13 12 12 12 13 12 10 9 8 6 5 4 3 3 3 4 6 7 7 6 6 6 5 4 3 3 4 4 4 5 5 5 3 2 2 3 3 5 8
15 15 15 14 12 12 11 12 12 10 9 8 6 5 4 2 2 2 3 5 6 6 6 6 7 6 5 4 4 5 5 4 4 5 4 3 3 4 4 4 5 8
15 15 14 13 12 11 12 13 13 10 9 7 6 5 3 1 2 3 4 5 5 5 5 7 8 8 7 6 6 5 5 5 5 5 4 4 3 4 4 3 5 9
15 15 13 12 11 11 13 14 13 11 9 8 6 5 2 1 3 5 5 5 5 4 5 7 8 9 9 8 7 6 6 6 6 6 6 5 4 3 3 2 4 9
15 15 13 11 10 11 14 15 13 11 10 9 7 4 3 3 4 5 5 4 4 3 4 5 6 8 9 10 9 8 7 7 7 8 7 7 5 5 4 3 4 8
16 16 15 12 11 14 16 15 13 12 12 10 7 5 5 5 5 5 4 3 3 2 3 3 4 6 7 8 9 9 8 8 8 8 8 7 7 7 6 5 5 8
17 18 17 14 13 16 16 14 14 14 12 11 9 8 7 7 6 5 4 3 2 2 3 3 4 4 4 5 7 9 10 10 9 9 8 8 7 8 8 6 6 8
18 19 19 16 15 17 16 15 16 15 13 12 12 12 11 10 10 9 7 6 4 3 3 4 5 5 4 3 5 8 10 10 10 10 10 10 9 9 9 9 8 9
19 20 20 19 18 17 17 17 17 16 14 14 14 13 13 12 11 10 9 8 7 6 4 3 4 4 4 3 3 5 7 8 9 10 11 11 10 9 10 11 10 9
17 18 19 18 18 18 20 22 20 17 15 14 14 13 12 11 9 8 7 6 5 6 6 6 4 4 4 3 2 3 3 4 6 8 10 11 9 8 9 11 12 11
16 16 16 16 16 18 21 21 15 12 12 11 9 8 6 4 3 4 5 4 4 4 5 5 4 4 4 4 4 4 4 3 3 5 9 10 9 8 8 9 11 12
14 14 13 15 16 18 19 15 13 14 16 17 17 15 11 10 9 6 5 5 5 5 4 4 3 3 3 3 4 5 6 6 5 5 7 9 9 9 9 8 9 10
12 12 12 13 16 17 16 14 13 13 13 14 14 12 9 8 9 9 7 6 7 7 5 4 3 3 2 2 3 3 5 6 7 6 6 7 8 8 8 8 8 9
8 10 11 13 13 14 14 12 12 11 11 12 11 10 10 9 9 9 9 8 7 7 6 6 5 4 3 3 3 3 4 5 6 7 7 7 8 8 9 9 10 10
8 9 11 12 12 12 11 11 12 11 12 12 11 10 10 9 8 9 9 8 7 7 7 7 7 6 5 5 5 5 5 5 6 7 8 8 9 9 9 10 11 11
10 11 12 12 12 12 12 13 13 13 13 12 11 10 9 8 8 8 8 8 8 7 7 8 8 8 8 8 7 7 7 7 7 8 8 9 9 10 11 11 12 12
12 12 13 13 12 13 14 14 14 14 13 12 11 10 9 8 7 7 7 7 6 7 8 8 9 9 10 10 10 10 10 10 10 10 10 11 12 13 14 14 15 15
13 12 12 11 10 10 12 13 13 12 11 11 11 10 10 9 7 5 5 6 6 7 8 9 10 10 11 12 12 12 13 13 13 13 13 13 14 15 17 17 18 19
14 13 12 11 9 9 9 9 9 8 7 7 7 7 7 7 7 5 5 6 7 8 9 10 11 12 12 13 14 14 15 15 16 16 16 17 17 18 19 20 20 21
13 13 12 11 10 9 7 7 6 5 4 3 2 3 3 2 4 5 6 7 7 8 9 10 11 11 12 13 13 14 15 16 17 17 18 19 20 21 22 22 22 23
11 10 10 9 8 7 6 5 4 3 3 3 3 3 3 2 3 5 7 7 8 9 10 11 12 12 13 14 14 15 15 16 17 17 18 19 20 21 22 23 23 23

ECMWFNIL_850_spd_054.txt.gz
Wind_Speed
21 21 21 20 17 16 16 15 17 16 15 14 12 11 10 9 10 10 9 9 9 9 9 9 9 8 8 8 8 8 8 8 8 8 9 9 9 9 10 10 11 11
23 22 21 20 18 17 16 16 17 17 16 14 12 12 11 10 9 8 8 9 9 9 9 8 8 8 8 8 8 9 8 7 7 7 7 8 8 8 9 9 10 10
24 23 21 21 20 18 18 18 17 17 16 14 13 12 12 12 11 9 10 9 8 9 9 8 7 7 7 8 9 8 7 7 7 6 6 6 7 7 8 9 9 10
25 23 21 20 20 20 20 20 18 16 15 13 13 13 12 12 12 12 13 11 9 8 8 8 7 7 7 8 9 8 7 7 7 6 5 5 6 6 7 8 9 10
25 23 22 20 20 21 21 20 18 17 15 14 13 12 12 12 11 11 12 11 9 9 9 8 7 7 7 8 8 8 8 8 7 7 6 6 6 6 6 7 8 10
25 24 22 20 20 22 21 20 18 18 16 14 13 12 11 11 11 10 11 10 9 9 9 9 8 7 7 8 7 7 8 7 7 7 6 6 7 6 6 6 8 10
26 25 22 19 20 21 21 20 19 18 16 14 13 12 10 10 10 10 10 10 9 8 8 9 8 6 6 6 6 7 8 8 7 7 5 5 6 6 7 7 8 10
26 25 23 21 21 21 20 20 19 17 15 14 13 11 10 10 10 10 10 10 10 9 8 8 8 7 7 7 7 8 9 9 9 8 6 6 6 6 6 8 10 11
26 25 24 23 22 21 20 20 18 16 15 14 13 11 10 10 9 9 10 10 10 10 9 9 9 8 7 7 6 6 7 9 10 9 9 8 7 6 5 7 11 12
25 24 25 24 23 21 20 19 18 16 15 15 13 11 10 11 10 10 10 10 10 9 9 10 9 8 7 7 7 7 7 8 9 9 9 8 7 6 5 7 11 12
25 25 25 24 22 21 22 21 18 16 16 14 12 11 11 11 12 11 10 10 10 9 8 9 9 8 7 7 7 8 8 9 9 8 8 8 8 8 6 7 11 12
26 26 25 23 21 22 23 22 19 17 16 14 12 12 12 12 11 11 10 9 8 8 8 7 7 7 7 7 7 8 9 10 11 10 9 8 8 7 6 7 10 13
24 25 23 21 21 23 23 21 19 19 17 15 14 14 14 13 11 10 10 8 8 8 7 7 7 6 6 7 7 8 8 10 12 12 11 11 9 8 7 8 10 13
22 24 23 22 21 22 22 20 20 20 18 16 16 16 15 14 12 11 10 8 8 8 7 7 6 5 5 5 6 7 8 9 11 11 10 11 11 10 10 9 9 11
21 22 23 23 23 22 21 22 22 20 19 18 17 15 14 14 13 12 10 8 7 7 7 8 7 7 8 8 7 6 6 6 9 9 8 9 9 9 12 11 9 10
20 21 21 21 23 24 23 24 23 21 20 19 18 16 15 13 12 11 10 8 7 6 7 8 8 8 8 8 8 8 7 6 6 8 8 8 8 8 11 12 11 11
18 19 18 20 23 24 24 23 23 23 21 15 13 14 13 10 7 8 8 9 9 8 7 6 6 6 6 6 7 8 8 7 5 6 8 9 9 8 8 11 11 12
16 16 17 20 22 23 24 25 25 23 15 7 9 12 12 9 9 10 11 11 11 10 7 6 5 4 4 5 5 5 7 7 5 5 7 8 8 8 7 8 10 11
12 12 15 19 21 23 25 24 22 17 11 10 11 12 12 10 10 12 13 12 11 9 8 7 6 4 4 4 4 4 5 6 6 6 7 7 8 8 8 8 8 9
11 11 13 16 18 21 21 17 14 12 10 10 11 10 10 10 10 11 12 10 9 8 9 8 7 5 5 4 4 4 4 5 6 6 7 7 8 9 10 9 10 10
10 10 12 14 15 15 14 12 11 11 10 10 10 10 10 9 9 10 10 9 8 8 8 8 7 7 6 5 5 5 5 5 5 5 6 7 8 9 10 10 11 12
11 11 12 12 12 11 11 11 10 10 9 9 9 9 9 9 9 8 8 8 8 7 7 7 7 7 7 7 6 6 6 6 6 6 7 8 9 9 9 10 11 11
11 11 12 11 11 10 10 10 10 10 9 9 9 10 10 9 9 8 8 7 7 7 6 6 6 7 7 7 7 7 7 7 8 8 9 10 10 10 10 11 12 12
12 11 11 10 9 9 10 10 10 10 10 9 9 9 8 8 8 8 8 7 6 6 6 7 8 8 8 8 8 8 9 9 9 10 11 12 12 12 13 13 14 14
13 13 12 11 10 9 9 9 8 7 7 7 6 6 7 6 6 7 7 6 5 5 6 7 8 8 8 9 9 9 10 10 10 10 12 13 13 14 14 15 17 18
13 12 12 11 11 10 9 8 7 6 5 6 5 5 5 4 4 5 6 5 5 5 6 7 8 9 9 9 10 10 10 11 11 12 13 13 13 14 14 15 16 17

ECMWFNIL_850_spd_057.txt.gz
Wind_Speed
23 23 22 21 20 19 18 17 16 15 13 11 11 11 10 11 11 11 11 10 10 10 9 9 8 7 8 7 7 7 7 8 9 9 9 10 10 10 12 13 12 12
26 24 23 23 22 20 18 17 16 14 13 12 11 11 10 10 11 11 11 10 10 10 8 8 8 8 8 7 7 7 7 7 7 7 6 7 9 9 10 12 12 12
27 26 26 26 24 21 19 18 17 15 14 13 11 11 11 11 11 11 11 10 9 9 8 7 7 7 7 8 7 7 7 6 5 6 6 6 8 7 8 10 11 11
28 27 27 26 23 21 20 20 19 17 15 14 12 12 11 12 11 11 12 11 9 9 8 7 7 6 6 8 8 8 8 7 7 7 5 6 7 6 7 8 8 9
29 28 28 26 23 22 21 21 21 19 17 14 13 12 12 12 12 11 11 10 8 8 8 7 7 6 5 6 7 8 7 8 8 7 6 6 6 6 7 7 8 9
31 30 28 26 22 21 21 21 21 18 16 15 13 12 11 11 11 10 10 9 8 8 7 7 7 6 5 5 7 7 7 7 7 7 7 7 7 6 7 7 8 9
33 30 27 23 20 21 22 22 20 16 15 14 13 11 11 11 10 10 10 9 9 8 8 7 6 5 5 5 5 6 6 6 6 6 6 6 7 7 7 7 8 8
31 27 24 21 21 23 23 21 19 16 15 14 13 12 11 10 10 10 10 9 9 8 8 8 6 5 5 5 5 5 6 6 5 5 5 6 6 6 6 7 8 8
27 26 23 20 22 25 25 22 19 17 16 14 13 12 11 10 10 10 9 9 8 8 8 9 7 6 5 5 5 5 5 6 6 6 6 6 5 4 6 8 8 9
27 26 23 22 25 25 23 20 18 17 16 14 13 12 11 10 10 10 9 8 8 8 8 9 8 7 6 5 5 5 5 5 6 6 6 5 4 4 5 6 8 10
30 27 23 24 26 24 21 19 18 17 15 14 13 11 10 10 10 10 9 8 8 7 7 8 8 7 6 6 6 6 6 6 6 6 6 5 5 5 5 7 9 10
31 28 25 24 23 21 19 19 17 16 15 14 12 11 10 10 10 10 10 9 8 8 7 7 7 6 6 6 6 6 6 7 7 7 6 6 5 4 4 6 9 9
27 27 26 24 22 21 19 19 17 16 15 14 11 11 11 11 10 10 10 8 8 7 7 7 6 5 5 5 5 6 6 7 8 8 7 6 6 5 3 5 9 9
23 23 25 23 20 20 20 18 16 15 14 13 11 11 11 11 10 10 9 8 8 7 6 6 6 6 7 7 7 6 6 7 8 8 8 7 7 6 3 3 7 10
23 22 24 22 19 20 20 18 16 15 15 14 12 12 12 11 10 10 9 8 8 7 6 7 8 10 11 11 11 9 6 6 7 8 8 9 8 7 5 4 5 9
27 25 24 24 21 20 20 18 16 17 16 15 14 13 13 12 11 10 8 7 7 7 7 9 12 12 13 13 12 11 8 6 7 7 8 9 8 8 8 6 5 8
29 27 26 25 23 21 20 18 18 19 19 18 17 17 16 15 13 11 9 9 8 6 6 7 9 10 12 13 12 12 11 9 6 6 8 9 9 9 9 8 7 7
25 24 27 27 27 26 24 22 23 24 23 20 19 19 18 16 13 11 10 10 8 7 6 6 7 7 7 9 10 12 13 11 7 4 7 8 8 8 8 9 9 8
22 24 28 29 28 26 25 25 26 24 22 21 18 16 14 12 10 9 9 10 9 9 9 8 7 6 5 5 7 8 10 10 7 3 6 7 8 8 7 8 9 9
18 21 26 27 25 24 24 25 24 21 21 18 12 10 11 11 9 9 10 11 11 11 11 8 6 6 6 5 5 5 6 8 7 5 6 6 7 8 7 7 8 9
14 17 23 24 24 24 24 23 23 22 20 15 9 7 9 10 8 9 10 11 11 11 10 8 6 5 4 5 5 5 5 6 7 6 5 5 6 7 7 7 7 8
14 18 23 24 23 23 22 21 21 19 15 10 8 7 9 10 10 10 11 11 11 9 8 7 6 6 5 4 4 4 5 5 5 4 4 5 6 7 7 6 7 8
14 16 19 20 21 20 19 17 15 13 11 10 10 10 10 11 11 11 12 11 10 9 8 7 6 6 6 6 6 6 5 4 3 3 4 5 5 6 6 6 8 9
14 16 17 17 17 16 15 14 12 11 11 11 11 11 10 11 11 11 11 10 8 8 7 6 6 6 6 7 7 7 7 7 4 2 3 4 4 4 5 7 10 12
17 17 16 16 16 16 15 15 14 12 12 11 10 9 9 9 9 9 8 7 6 6 6 6 6 6 6 7 7 7 8 9 8 5 5 7 6 5 5 7 11 13
18 17 16 15 16 16 15 14 12 10 10 10 9 7 7 7 6 5 5 5 5 5 6 5 5 5 5 5 6 7 8 9 9 9 9 10 9 9 7 6 9 14

ECMWFNIL_850_spd_060.txt.gz
Wind_Speed
16 27 29 26 24 21 18 18 17 15 14 13 11 10 10 11 12 12 12 11 10 10 10 9 8 7 7 7 7 7 6 6 6 6 7 9 10 9 9 10 10 10
25 29 29 27 24 21 19 19 17 16 15 13 12 11 12 13 12 12 12 11 10 10 10 9 8 7 7 7 6 6 6 5 6 6 6 8 9 9 10 11 12 11
28 28 27 26 24 21 20 19 19 18 16 13 12 13 13 11 11 12 11 10 9 10 8 8 8 7 7 7 6 6 5 4 4 5 6 6 7 7 8 10 12 12
27 28 27 25 23 21 20 21 21 20 17 14 13 14 13 11 12 12 12 11 9 8 8 8 8 7 6 7 7 6 5 4 4 4 5 6 6 5 6 8 10 10
27 29 27 25 24 22 22 22 21 19 18 17 16 14 12 12 13 13 13 12 9 8 10 8 7 7 6 6 7 7 6 6 5 5 5 5 6 5 5 6 7 7
28 29 27 27 26 24 24 23 21 19 20 19 17 15 12 12 12 11 12 12 8 7 8 7 6 6 5 4 6 7 6 6 6 6 5 6 7 5 4 6 6 6
29 29 28 27 27 26 25 24 21 20 21 19 16 14 12 12 12 10 11 11 7 6 6 6 6 6 5 4 3 5 6 5 5 6 5 4 5 5 5 5 5 6
29 29 29 28 28 27 25 23 20 20 19 18 15 13 12 12 12 11 13 12 10 9 7 6 5 6 5 4 2 3 5 5 3 4 5 5 5 5 5 5 6 6
31 31 30 29 29 28 25 23 20 19 19 17 15 13 12 12 12 12 12 11 10 10 8 7 5 5 6 6 4 4 5 5 3 4 6 8 4 2 3 4 5 6
31 32 30 30 29 28 26 23 21 19 18 16 15 13 13 12 12 11 11 10 10 9 8 9 6 5 6 6 4 4 4 4 5 5 7 6 1 1 2 3 3 6
30 30 29 30 30 28 26 24 22 20 17 15 15 14 13 12 11 11 11 10 10 8 7 9 6 4 5 6 4 6 6 4 4 5 5 4 3 4 3 3 4 6
30 29 28 30 31 29 28 27 23 21 18 16 15 13 12 11 11 11 10 9 10 8 7 8 6 4 5 5 3 5 8 6 4 5 5 4 3 3 3 3 5 6
31 30 30 31 32 30 29 27 23 21 20 17 15 13 11 11 11 11 11 10 9 9 8 8 9 8 8 7 4 4 6 7 6 6 5 3 2 1 2 3 4 7
32 31 29 30 31 29 27 25 23 20 19 16 14 13 12 12 12 12 12 10 9 10 10 10 11 11 10 10 8 6 6 6 7 8 7 5 4 2 1 1 2 6
32 29 26 26 26 26 24 23 21 19 18 15 12 12 13 12 12 12 11 10 10 10 11 12 11 9 9 9 9 8 8 7 6 7 7 5 5 3 1 1 2 5
29 27 25 24 25 25 24 22 21 19 17 15 13 14 14 13 12 11 11 11 11 11 10 9 9 9 9 9 9 9 9 7 6 6 6 5 5 4 2 2 3 4
26 26 25 23 24 25 22 20 21 21 19 18 17 17 16 15 13 13 13 12 12 9 6 6 8 9 9 10 11 10 8 7 6 6 5 5 5 5 3 2 4 4
25 27 26 24 24 24 22 22 23 23 22 21 20 19 20 19 16 15 13 12 10 6 3 4 6 7 9 11 12 11 8 8 7 6 5 5 5 5 4 3 5 5
26 28 27 26 26 25 25 26 25 24 23 22 20 19 20 19 17 14 12 11 9 5 3 3 3 4 6 8 11 12 11 9 8 7 5 4 4 4 4 4 5 6
27 28 28 27 26 25 26 27 27 25 23 21 19 19 20 18 14 10 9 10 9 6 4 3 3 3 4 5 6 9 11 11 8 6 6 5 5 7 7 6 6 6
24 26 27 25 25 26 27 28 28 26 23 21 20 20 17 12 8 7 7 8 8 6 5 5 4 4 5 5 5 6 8 10 8 5 6 7 6 7 9 9 9 8
22 22 24 24 26 28 27 26 25 23 22 22 20 16 11 8 8 9 8 8 7 6 6 6 6 6 5 5 5 5 7 8 7 4 4 4 3 3 5 6 7 7
18 20 21 22 23 24 24 22 21 21 22 21 16 10 8 7 8 8 8 8 8 7 7 8 7 7 6 5 5 6 6 7 5 3 3 4 3 3 3 4 5 6
15 17 17 16 16 18 19 19 18 17 18 16 11 8 8 8 7 6 5 6 7 8 8 8 7 7 7 6 6 6 6 5 5 4 3 4 4 2 2 4 5 6
15 16 15 14 14 13 13 13 13 12 12 12 11 9 9 8 7 6 6 6 8 8 7 6 6 5 5 6 6 6 6 6 6 6 5 5 5 4 2 2 4 5
17 18 17 16 15 15 15 14 12 12 12 12 11 9 9 8 8 7 7 7 8 8 6 4 4 4 4 5 5 5 6 6 7 7 6 6 7 5 1 3 4 6

ECMWFNIL_850_spd_063.txt.gz
Wind_Speed
26 23 27 26 24 23 23 24 23 22 22 21 21 22 21 21 19 18 18 17 15 16 16 16 14 13 12 12 13 12 12 11 11 11 12 11 11 13 13 14 16 15
26 23 25 26 25 23 22 22 21 21 21 21 21 21 20 19 18 18 17 16 15 15 15 14 13 12 12 12 12 11 10 11 11 11 12 12 12 13 12 13 15 14
26 22 23 25 25 23 22 21 20 20 20 21 21 21 20 18 17 17 16 16 15 14 14 14 13 12 12 12 12 11 10 10 10 11 11 12 13 12 12 12 13 13
24 19 20 25 25 23 22 21 21 20 20 21 21 19 18 16 16 17 16 15 15 13 13 13 13 12 13 13 12 12 11 9 9 10 11 12 12 12 12 12 12 14
21 16 20 26 25 22 22 22 22 22 22 22 21 18 16 16 17 17 16 15 14 14 13 13 13 13 13 13 12 12 12 10 10 10 10 11 12 11 10 10 12 14
20 17 22 25 22 21 22 22 22 23 23 22 20 18 16 16 17 17 17 15 13 13 14 14 14 13 11 11 12 12 11 10 10 10 10 10 11 10 9 10 11 12
22 21 23 23 21 22 22 23 24 24 24 22 20 17 15 16 17 17 17 14 11 13 14 14 14 14 10 9 11 11 11 10 9 9 9 10 10 9 8 9 9 10
25 24 25 24 24 24 24 25 25 24 23 22 19 16 15 16 16 17 16 12 11 13 13 12 14 13 10 8 10 11 11 9 9 9 9 8 6 6 8 8 8 9
24 24 25 26 27 27 27 27 26 24 23 21 18 16 16 17 18 19 16 12 12 12 10 11 12 12 11 9 9 11 12 10 8 8 8 6 3 4 7 7 7 9
24 24 27 29 30 30 29 27 26 25 23 19 17 17 18 18 20 21 17 14 14 12 10 11 11 12 12 9 8 11 12 10 7 7 7 6 3 3 6 5 4 8
22 24 28 31 32 32 30 28 26 24 21 17 16 19 19 17 19 20 17 16 14 11 11 11 9 10 11 10 10 11 10 8 8 7 8 7 4 3 6 5 3 5
20 23 28 31 32 32 30 27 25 21 17 16 17 19 17 17 19 18 16 16 14 11 13 13 9 11 13 11 11 12 10 8 8 7 8 8 5 4 6 5 3 3
20 24 28 30 31 29 27 25 23 19 17 17 19 18 16 17 18 17 16 17 15 13 15 15 12 13 13 11 11 13 12 10 10 9 8 6 6 6 6 4 4 5
21 26 28 29 30 28 26 24 22 20 19 19 18 16 17 18 18 17 17 17 17 15 14 14 13 12 11 9 9 13 14 12 13 12 9 7 7 6 4 3 2 3
23 28 29 29 31 30 27 26 24 23 22 20 17 17 19 19 19 18 17 17 18 17 15 13 13 12 11 10 8 10 13 13 14 13 11 9 6 3 2 1 2 2
24 29 29 29 31 31 28 27 27 26 23 21 20 20 20 21 21 19 17 17 17 17 15 13 12 11 11 11 9 9 10 11 13 13 11 9 6 3 2 2 2 2
26 29 28 27 28 29 27 25 25 24 22 22 22 21 21 22 21 18 17 17 16 14 12 11 10 10 10 10 9 9 10 10 12 13 10 9 7 5 4 4 3 2
26 28 28 26 27 28 26 23 24 23 23 23 23 22 22 22 20 17 17 16 13 11 9 8 8 8 8 9 10 10 10 9 11 11 10 9 9 6 4 4 3 1
27 28 29 28 28 29 28 26 25 24 24 26 24 23 22 20 18 17 15 14 12 10 8 7 7 7 8 10 11 10 10 10 10 11 10 10 8 5 3 3 3 2
27 28 28 28 28 29 28 27 27 25 24 24 23 22 21 19 18 16 15 14 12 8 6 7 8 8 8 9 11 12 12 12 11 11 10 9 6 4 4 5 6 6
28 28 28 27 28 29 28 28 28 27 25 24 22 21 21 19 18 16 14 12 10 7 7 9 10 9 9 9 10 12 14 14 12 10 10 8 7 7 8 9 10 9
26 29 30 27 26 27 29 31 30 28 26 25 23 22 22 20 17 12 10 10 10 9 10 10 10 10 10 9 9 10 14 15 11 9 9 8 7 8 8 8 9 9
23 27 29 28 27 29 30 30 29 28 27 24 22 22 21 17 10 6 6 9 11 11 11 10 10 11 10 10 9 8 10 12 11 10 10 9 8 8 7 7 7 8
22 25 28 29 29 30 30 29 28 28 25 23 21 18 14 11 7 7 9 11 11 10 10 10 11 11 9 9 9 8 8 9 9 9 10 9 9 9 8 7 8 8
18 21 24 25 25 25 25 26 26 23 20 19 18 14 10 10 11 12 12 12 11 10 10 10 10 10 9 9 9 9 9 9 7 7 9 9 9 10 11 10 10 10
13 15 17 18 18 16 16 16 16 16 17 18 17 13 11 13 13 12 13 13 12 11 11 10 9 9 9 8 9 10 10 10 9 8 9 10 9 10 10 11 11 11

ECMWFNIL_850_spd_066.txt.gz
Wind_Speed
32 30 28 26 25 24 26 28 27 26 26 26 24 24 23 21 21 21 21 20 21 22 21 20 20 19 19 18 18 17 15 14 14 14 14 14 15 16 16 16 17 18
32 30 27 25 24 22 23 26 25 24 25 25 23 22 22 21 22 23 23 22 22 22 21 20 20 19 18 18 17 17 16 15 15 14 15 15 16 16 17 17 17 18
32 31 28 26 24 21 22 23 22 21 23 23 22 22 22 24 25 26 25 22 22 21 20 20 19 17 17 17 17 16 16 16 16 15 15 15 16 16 16 16 16 17
28 28 28 26 22 21 20 21 21 21 22 22 22 23 24 26 25 24 23 21 21 22 20 19 18 17 16 17 16 16 16 16 16 15 15 15 15 15 15 15 15 16
23 25 25 23 19 19 20 22 22 23 22 23 24 25 26 27 24 23 23 22 22 22 21 20 18 18 17 18 17 16 16 16 16 15 14 14 15 15 15 15 15 16
20 23 24 21 18 18 21 23 23 24 24 25 26 27 28 27 24 24 24 24 23 22 22 21 19 19 18 18 17 17 16 16 16 16 14 14 15 15 14 14 15 16
22 22 22 22 19 19 23 25 25 25 26 27 29 30 29 26 25 25 25 23 22 21 21 21 20 19 19 18 17 17 16 15 15 15 14 13 14 14 13 13 14 14
25 23 21 21 20 20 24 28 28 27 28 30 32 31 28 26 25 24 24 22 20 20 21 21 20 19 19 18 18 18 17 15 14 14 14 14 14 14 13 12 13 13
24 23 21 22 22 22 26 29 28 28 30 33 32 28 26 25 25 24 22 20 19 20 21 20 19 18 17 17 18 18 16 15 14 14 14 13 12 12 12 12 12 13
24 26 25 25 24 24 29 29 27 30 33 32 28 26 25 25 24 22 20 19 20 21 21 20 18 16 15 16 18 17 16 15 14 14 14 11 9 9 11 11 11 12
25 27 25 24 25 28 31 29 30 33 32 27 24 24 25 25 24 22 20 21 21 20 20 19 18 17 15 15 16 16 16 15 14 14 13 11 8 8 9 9 7 8
22 24 25 26 28 31 31 31 32 32 29 25 24 25 25 25 25 23 21 21 19 18 19 19 18 17 16 16 17 17 15 14 13 13 13 11 9 7 8 7 5 4
21 22 26 29 31 32 31 31 32 31 28 27 26 26 27 26 25 23 23 21 19 19 20 19 19 18 17 17 18 16 15 14 13 13 13 11 9 7 7 7 5 4
20 22 27 30 32 32 31 30 30 28 27 28 28 28 28 26 24 24 24 21 19 19 19 18 18 18 18 17 16 16 16 15 13 14 14 12 10 9 8 6 6 6
20 22 24 29 31 32 32 31 29 29 29 30 30 30 29 27 24 23 23 20 19 20 18 18 19 19 18 16 16 16 16 16 15 15 14 12 11 10 7 5 5 5
19 20 21 27 33 34 35 34 32 31 32 33 33 31 29 27 24 23 22 19 19 20 19 19 19 19 16 15 16 16 16 17 16 15 14 13 12 10 7 4 4 4
15 17 22 28 33 36 36 35 33 33 34 35 33 30 28 26 23 22 22 20 18 19 20 19 18 17 15 14 14 16 17 18 17 15 14 13 11 9 6 4 4 4
14 19 26 28 30 34 35 35 34 34 36 35 31 27 27 25 22 20 21 22 20 19 19 18 17 16 15 14 13 14 15 16 16 16 14 12 10 9 7 6 4 4
15 20 28 29 29 31 33 34 34 34 34 32 27 26 27 25 23 22 22 22 20 19 18 17 15 15 14 13 13 14 14 14 16 16 15 13 11 10 10 10 7 4
17 21 27 28 29 31 32 33 32 30 30 28 25 27 28 25 23 23 22 20 19 18 16 15 15 15 14 13 14 14 14 13 15 15 15 15 13 11 12 12 9 6
20 22 25 27 28 31 31 29 27 25 24 23 24 26 27 25 24 23 21 20 18 16 14 14 14 14 14 15 15 15 14 14 15 14 15 16 14 12 14 14 11 9
20 22 26 27 28 27 25 23 22 21 21 23 26 27 27 25 24 22 21 20 17 13 12 13 14 13 13 15 16 17 15 15 15 14 14 14 14 13 15 16 14 12
22 23 26 28 27 25 24 23 21 22 25 27 29 29 27 25 24 22 20 18 16 13 13 15 15 13 12 12 15 17 17 15 14 14 14 14 14 14 15 15 15 14
22 22 23 25 25 26 26 24 22 25 29 30 30 29 28 25 23 21 19 17 16 16 16 16 15 13 12 11 12 14 15 14 13 13 14 14 14 14 14 13 13 14
19 21 22 23 24 26 27 24 24 26 28 28 27 27 26 23 20 19 18 18 18 19 17 15 15 15 13 12 12 12 12 13 12 12 13 14 13 13 13 13 13 13
14 17 21 23 23 24 26 26 26 24 23 24 25 24 23 21 19 18 20 20 19 18 18 16 16 16 14 13 13 12 11 11 11 11 12 13 13 13 13 12 13 12

ECMWFNIL_850_spd_069.txt.gz
Wind_Speed
30 30 31 32 33 32 29 27 24 24 25 25 25 28 28 28 26 24 23 24 25 25 24 24 24 23 24 23 21 19 18 18 17 17 16 16 16 15 15 15 15 16
27 31 32 30 29 29 27 25 23 23 24 24 24 25 27 28 26 22 22 24 25 23 22 23 24 24 23 23 21 20 20 19 18 17 17 16 15 15 16 15 15 15
23 25 28 28 26 24 24 23 23 22 22 23 24 24 26 27 25 22 21 23 23 21 21 23 24 23 23 22 21 21 20 19 19 18 18 17 16 16 16 15 15 15
24 23 22 23 24 25 25 24 23 23 22 22 23 23 24 24 23 22 22 23 22 21 22 24 24 23 23 21 20 20 20 19 19 19 18 18 17 17 16 16 16 16
26 28 26 23 23 24 24 24 24 23 22 21 21 20 21 21 20 21 23 23 22 20 22 25 24 23 21 20 20 19 19 19 19 18 18 17 18 18 17 17 17 16
26 30 30 26 24 23 23 22 23 23 21 20 20 20 20 20 21 22 23 24 22 21 24 25 23 22 21 19 19 18 18 19 18 17 17 17 18 18 18 17 17 16
25 27 29 30 29 27 24 23 22 21 20 21 20 20 21 21 22 24 25 25 24 23 24 24 22 21 21 19 19 19 18 18 18 17 18 17 17 18 18 17 16 15
23 25 28 31 31 27 24 23 23 20 19 21 22 22 23 22 24 26 26 25 24 24 24 22 21 21 21 20 20 20 19 18 18 18 18 17 16 17 17 17 16 15
21 24 25 26 26 24 21 22 22 21 21 23 24 24 23 23 25 27 26 25 24 25 24 22 22 21 21 21 21 20 20 19 19 18 17 16 15 16 16 16 16 16
19 20 20 20 22 21 19 20 21 22 23 25 26 24 23 23 26 26 25 26 26 25 24 24 23 22 21 21 20 20 20 19 18 17 16 15 14 14 14 14 14 14
19 20 20 21 22 21 19 21 22 23 25 28 27 25 23 24 27 27 26 28 27 24 24 24 24 22 21 20 20 20 19 18 17 17 15 14 13 13 13 13 12 11
19 21 22 23 24 23 22 24 26 26 27 30 28 25 25 27 29 28 28 29 26 23 24 24 22 21 20 20 20 19 18 17 17 16 15 14 13 12 12 11 10 9
16 18 21 23 22 22 24 27 28 28 29 31 28 27 28 28 28 28 28 28 26 25 25 24 22 20 19 19 20 19 18 17 16 16 16 14 12 11 11 10 9 6
14 16 20 22 21 21 22 25 27 28 30 31 29 30 29 27 28 28 28 28 27 27 26 23 22 20 19 19 20 20 18 16 16 17 16 14 12 10 9 9 8 6
14 16 18 19 20 20 20 22 25 29 31 30 30 31 29 28 29 29 28 29 28 27 26 24 22 20 18 19 20 20 18 15 15 15 15 13 12 10 9 9 8 7
13 16 16 16 17 18 20 23 25 28 30 29 28 30 30 31 32 32 30 30 29 27 25 23 21 19 18 18 18 18 17 15 14 14 14 13 11 10 10 9 8 8
13 14 15 16 16 17 21 25 24 27 30 29 29 30 32 35 36 34 32 30 27 25 23 22 20 18 17 17 16 16 15 15 14 13 13 12 11 11 11 8 7 7
14 14 15 16 16 17 25 28 26 27 30 31 33 34 35 36 35 34 32 28 25 23 21 20 19 18 17 16 16 15 14 14 14 14 14 13 12 12 10 8 6 5
15 15 16 17 16 19 27 29 29 30 31 32 33 34 36 36 33 32 30 25 23 22 19 18 19 19 18 16 15 15 15 15 15 15 16 15 14 12 11 9 7 4
14 13 15 17 17 19 27 32 32 33 33 33 32 32 34 35 33 30 27 22 21 20 19 18 19 20 18 16 15 15 16 16 16 16 17 16 15 13 12 10 8 6
12 11 13 17 17 19 27 33 34 34 34 34 34 34 33 33 31 27 24 21 19 19 19 19 19 19 18 17 16 15 16 17 17 17 16 16 16 14 13 12 11 8
10 11 14 17 18 20 27 32 33 34 34 34 34 33 31 31 30 26 23 22 21 20 20 20 19 18 17 17 16 16 17 17 17 17 16 16 16 16 15 15 13 10
4 13 15 15 14 17 24 29 29 30 31 30 29 28 27 28 28 26 24 23 22 20 19 18 18 18 18 17 16 16 17 17 17 16 16 17 17 17 16 16 15 12
4 13 18 19 17 18 22 25 25 26 27 26 26 27 27 27 26 26 24 22 20 18 17 17 18 18 18 17 17 16 16 16 16 16 16 17 18 18 17 17 16 14
7 10 17 21 22 23 25 24 21 22 25 26 27 27 26 26 26 26 25 22 20 18 16 15 17 17 15 15 15 15 14 14 14 15 16 17 18 18 18 17 17 15
11 8 12 18 22 24 24 25 24 24 23 24 25 25 26 27 26 25 26 24 21 19 17 16 16 15 14 13 12 12 13 13 13 14 15 16 17 17 17 17 16 16

ECMWFNIL_850_spd_072.txt.gz
Wind_Speed
26 24 22 23 24 26 26 23 21 21 21 23 26 25 24 24 23 25 27 26 25 24 23 23 24 26 28 28 26 24 23 22 20 18 18 18 18 17 16 15 14 14
25 25 23 21 23 26 26 23 20 19 18 19 22 22 20 22 23 25 25 24 23 22 22 22 23 26 28 27 25 23 23 23 20 18 18 18 18 17 16 15 14 13
25 25 25 24 24 24 24 23 21 19 20 20 19 17 16 19 22 22 22 22 22 22 22 22 24 25 26 25 24 24 25 24 21 19 18 18 17 17 16 16 15 14
20 20 23 24 25 22 19 20 20 19 19 19 18 18 17 19 20 20 20 21 22 22 22 23 24 25 26 26 24 24 25 24 22 20 18 18 18 17 16 16 15 15
16 20 24 24 23 21 19 19 19 18 18 19 21 21 21 20 21 21 20 20 21 22 22 23 24 25 26 26 24 24 25 24 21 20 19 19 19 18 17 16 15 15
13 19 23 23 23 23 22 21 18 16 17 19 22 23 22 21 20 20 20 19 20 21 22 23 23 23 24 24 23 24 25 24 22 21 20 19 20 19 18 17 16 16
11 13 17 20 23 24 23 22 19 17 17 19 22 23 22 20 19 19 19 18 19 20 21 22 22 23 23 24 23 24 24 24 23 22 21 20 20 20 19 18 17 16
10 10 12 16 21 22 22 22 20 19 19 21 22 23 22 20 20 20 20 19 20 21 21 21 21 23 24 23 23 25 24 23 22 21 20 21 20 19 18 18 17 16
13 12 12 13 16 17 18 19 19 20 22 22 22 22 22 21 22 21 21 21 21 20 20 20 21 23 24 23 23 24 23 21 19 19 19 19 19 18 17 17 17 16
16 15 15 15 16 15 15 17 19 21 22 22 22 23 22 22 24 24 22 22 21 20 20 21 22 23 23 23 24 24 21 19 18 17 18 17 17 16 16 16 17 16
16 17 18 18 18 17 16 16 17 19 20 21 23 24 23 24 26 26 25 23 22 21 21 22 23 23 22 23 24 23 20 18 18 17 16 16 15 15 15 16 15 15
15 17 18 19 19 19 19 18 18 19 20 21 23 24 24 25 28 28 25 23 22 22 22 23 23 23 22 22 22 21 18 18 18 17 15 15 15 15 14 14 13 12
14 15 17 18 18 19 20 20 20 22 23 23 24 24 24 26 29 29 25 23 23 24 24 24 23 23 23 22 20 19 18 18 18 17 16 15 15 14 14 13 12 11
15 15 16 17 16 17 19 22 23 23 24 25 26 26 26 27 30 29 25 24 25 26 26 25 23 24 24 21 19 19 19 19 19 18 16 16 15 14 13 13 12 11
15 16 17 16 15 14 15 19 22 23 24 26 28 29 28 29 30 28 26 27 28 28 27 25 24 23 22 20 19 21 21 19 18 17 17 16 15 14 14 14 13 11
20 16 16 16 14 13 13 15 18 20 21 24 26 27 29 31 31 29 28 29 29 28 27 25 24 22 21 20 20 21 20 18 17 17 18 17 16 15 14 14 13 11
26 21 17 14 13 12 12 13 14 15 16 19 22 25 30 32 30 29 30 30 29 28 27 25 23 22 21 20 20 20 19 18 17 18 18 17 16 15 14 13 13 11
29 25 20 16 12 11 11 13 15 15 15 19 24 28 31 32 30 31 31 31 29 28 27 25 23 22 20 19 19 20 19 18 17 17 18 18 16 15 14 13 12 9
28 25 22 19 16 13 13 14 16 18 20 24 28 31 31 31 31 32 32 30 28 27 26 24 22 21 20 19 19 19 19 18 17 16 17 18 17 15 15 13 10 8
27 23 19 18 17 16 15 16 17 21 26 29 31 32 31 30 31 31 30 29 27 26 25 23 22 22 21 19 18 18 18 17 16 16 17 18 17 16 15 13 10 8
27 22 17 15 14 15 16 16 17 22 28 30 31 30 27 26 29 31 30 29 27 26 26 25 24 23 21 19 17 16 16 16 16 16 17 18 18 17 15 13 11 9
24 20 16 13 11 12 15 16 17 22 25 26 26 27 26 26 28 29 30 30 30 29 29 29 26 24 22 20 17 16 15 16 16 16 17 19 19 17 16 14 12 10
22 18 15 11 8 9 12 13 16 20 21 20 21 24 27 28 27 28 29 29 30 30 29 27 26 25 23 20 17 15 14 14 15 16 17 18 18 18 16 15 13 11
20 16 13 11 9 7 7 8 12 14 15 15 17 21 23 23 25 28 28 28 29 29 27 25 25 24 22 19 17 15 13 13 14 15 15 16 17 17 17 15 14 13
20 15 12 10 9 7 5 3 4 9 13 13 14 18 22 23 23 24 23 22 23 24 24 23 22 21 19 18 16 14 13 12 13 13 14 15 16 17 17 16 15 14
19 17 12 9 7 6 8 10 9 8 10 14 15 17 20 20 18 17 17 17 17 17 17 17 17 17 17 16 15 14 13 11 11 11 12 14 15 16 16 16 16 15

ECMWFNIL_850_spd_075.txt.gz
Wind_Speed
17 17 20 21 21 19 16 17 18 17 15 13 12 11 10 10 12 14 16 19 20 22 24 25 26 24 23 24 24 23 22 19 18 20 19 19 20 20 21 20 19 18
13 13 16 18 18 18 17 17 16 15 14 13 12 10 9 9 10 12 14 16 17 19 21 22 25 25 24 24 23 22 22 21 21 20 20 21 21 22 22 21 20 19
13 13 15 16 16 16 17 17 16 15 15 15 14 11 9 9 10 10 11 13 15 16 17 20 23 24 24 24 22 22 23 23 22 21 21 21 21 22 22 21 20 19
13 13 15 16 17 16 15 16 16 15 14 12 12 12 12 12 12 11 11 12 15 15 16 18 22 23 24 24 23 23 24 23 22 22 22 22 22 23 23 23 22 20
12 14 14 15 17 16 14 14 14 15 14 11 10 12 15 14 13 12 12 14 16 16 17 18 20 23 24 24 23 23 23 23 23 23 22 22 22 23 23 23 22 20
12 13 14 14 14 14 13 14 15 16 18 17 14 14 15 14 13 13 13 15 16 17 17 18 20 23 24 23 22 22 23 23 23 22 22 21 22 23 23 22 21 21
13 12 13 13 13 11 12 14 15 16 17 17 16 16 15 14 14 13 13 15 16 17 17 18 20 22 23 23 22 23 23 23 22 22 21 22 24 25 24 22 20 20
15 14 13 14 13 12 12 13 15 15 16 17 18 18 17 17 17 16 16 16 16 18 18 19 21 22 23 24 23 23 22 23 23 22 22 23 25 25 23 21 20 20
17 16 15 15 15 14 13 13 14 14 16 18 20 20 20 21 20 19 19 18 17 18 19 20 22 23 24 24 23 22 22 22 23 22 22 23 25 24 22 21 21 20
17 18 17 16 15 16 16 16 15 15 16 18 20 21 22 23 23 22 21 19 19 19 20 21 22 23 24 23 23 23 22 22 22 21 21 23 23 23 23 23 22 21
17 18 19 18 17 17 19 20 19 19 18 18 19 21 22 24 24 23 22 20 20 21 21 22 22 23 24 23 23 23 21 21 21 21 22 22 23 24 24 23 23 21
15 17 19 20 20 19 20 21 22 22 21 20 20 20 22 23 24 23 22 21 21 22 22 22 23 23 23 23 23 22 21 21 20 20 21 22 24 25 24 22 22 20
16 15 16 18 21 21 21 22 22 23 23 23 22 22 22 22 23 23 23 22 22 22 23 23 23 23 22 22 22 21 21 20 19 19 21 22 23 24 24 22 21 19
20 17 16 16 17 19 20 21 23 24 24 23 23 23 23 22 22 23 24 23 22 23 24 24 24 23 23 23 22 21 20 19 19 20 21 21 22 23 24 22 20 19
22 20 18 16 15 17 18 18 20 22 24 23 23 24 24 24 24 24 24 23 22 24 26 26 25 24 24 23 22 21 20 19 19 20 20 20 21 21 21 20 18 18
24 21 18 14 13 14 15 15 15 17 20 22 22 23 25 26 25 25 26 25 23 25 27 26 25 25 23 22 22 21 20 18 19 20 20 20 19 18 18 18 18 18
27 22 17 13 11 11 11 12 13 14 15 17 19 20 22 25 25 26 27 27 25 26 27 27 26 25 23 22 22 21 19 18 18 18 19 20 19 17 16 17 17 18
30 25 19 17 15 14 13 12 11 12 13 14 16 16 18 20 21 23 25 26 26 27 27 27 26 26 24 22 21 20 19 18 18 17 18 19 19 17 16 17 17 17
31 28 24 22 20 18 17 16 14 14 15 16 17 16 16 16 17 20 22 25 26 27 27 26 26 25 24 23 21 19 18 17 17 17 18 18 19 19 17 17 16 14
32 30 27 25 24 21 18 17 18 18 19 20 20 19 18 19 20 22 25 28 27 26 26 25 26 26 25 23 20 18 17 17 18 18 18 18 19 19 17 16 14 12
32 30 28 26 25 23 19 17 17 19 20 22 21 20 20 21 23 25 28 30 28 27 27 26 27 27 24 22 20 18 18 19 19 19 18 19 19 18 17 15 13 11
31 30 28 26 26 24 21 18 17 17 18 19 19 18 17 18 22 25 28 29 28 27 27 28 28 27 24 21 20 19 19 20 20 18 18 19 20 19 17 16 13 11
31 29 27 24 24 25 24 22 21 19 17 15 14 12 11 11 15 19 21 24 25 25 25 27 28 27 25 22 19 18 19 19 19 18 18 20 20 19 18 17 14 12
31 29 27 24 23 23 22 20 20 18 16 13 10 5 2 4 6 8 10 14 19 21 22 25 26 24 22 20 18 16 17 17 17 18 18 19 19 19 18 17 15 14
29 28 28 26 23 21 19 18 17 17 15 12 10 6 4 5 2 4 5 7 12 15 16 20 23 24 22 21 20 18 16 15 15 16 17 18 19 20 19 18 16 15
28 27 27 26 24 20 17 15 14 14 13 13 12 10 9 8 6 5 7 9 10 11 11 13 18 21 22 22 20 18 15 13 14 15 16 17 18 18 18 17 17 16

ECMWFNIL_850_spd_081.txt.gz
Wind_Speed
7 8 9 11 11 11 14 16 17 18 18 17 17 15 14 14 14 14 18 18 17 17 17 18 19 20 19 19 21 22 21 21 21 21 21 22 24 24 24 24 25 26
9 9 10 10 10 10 13 15 16 18 18 17 17 17 16 17 17 17 18 18 17 18 18 19 20 21 20 20 21 21 21 21 21 22 22 22 23 24 24 24 25 26
11 11 10 11 11 11 12 13 14 17 18 18 18 18 19 19 19 19 19 19 19 19 18 20 22 21 22 23 22 22 22 21 22 23 23 22 23 24 24 24 25 26
12 11 11 12 12 12 13 12 13 14 16 18 19 20 20 21 20 20 20 20 20 19 17 18 20 21 21 23 24 25 24 22 22 24 24 24 24 25 24 24 25 26
12 12 12 12 13 14 14 14 13 13 14 16 18 21 21 21 20 20 21 21 20 19 18 17 18 19 21 22 24 26 25 24 24 24 25 25 25 26 25 24 25 26
14 14 13 13 13 14 15 15 14 14 15 15 17 20 20 19 19 19 21 22 20 20 20 18 17 18 19 21 23 25 25 26 26 25 25 26 26 26 25 24 24 25
16 17 16 16 15 14 14 15 16 15 16 17 17 18 19 18 19 19 19 19 20 20 22 20 18 18 19 19 21 23 25 26 26 26 26 27 26 26 26 25 25 26
15 17 18 18 18 17 15 14 15 15 15 17 18 18 18 17 18 18 18 19 21 22 24 23 22 20 20 20 22 23 24 25 26 26 26 27 27 28 27 25 25 27
14 15 16 17 18 19 18 16 15 14 14 16 18 18 18 18 18 19 19 21 23 24 24 24 25 23 21 20 21 23 25 25 25 26 27 29 30 28 27 25 26 28
13 14 14 15 16 17 18 18 16 14 12 13 15 17 18 18 19 20 21 22 24 25 25 25 26 24 20 19 20 22 24 25 25 26 27 29 30 28 27 27 27 27
15 14 14 14 14 15 16 17 16 14 13 13 14 17 18 18 18 20 22 23 24 26 27 27 29 26 21 20 20 21 23 24 25 26 26 27 29 29 29 29 28 26
16 15 15 15 16 16 16 16 16 13 12 12 13 16 17 18 19 19 20 22 23 26 27 28 29 26 22 21 23 23 23 24 25 26 26 27 28 28 28 30 30 27
17 15 15 16 16 17 16 16 16 14 13 12 12 14 16 17 18 19 20 21 22 24 25 27 27 25 22 23 25 26 25 24 25 26 26 26 26 27 28 30 29 28
17 15 15 16 16 17 16 15 15 15 14 14 14 15 16 17 18 19 20 21 22 24 25 26 25 23 22 24 27 27 27 26 27 26 26 26 27 28 29 29 29 29
17 15 16 17 16 17 16 16 15 14 14 16 17 18 19 20 20 20 19 19 20 22 24 26 25 22 22 25 27 28 28 28 27 26 26 28 29 30 29 29 29 29
18 17 17 17 17 17 17 17 17 16 15 15 17 20 21 22 23 23 23 22 21 19 21 23 25 23 23 25 27 28 28 28 26 24 26 29 31 31 30 29 29 29
18 18 19 18 18 18 17 17 18 19 19 18 16 17 19 20 22 24 25 26 25 23 21 20 20 21 24 27 27 27 28 28 26 24 25 27 29 31 29 28 28 28
19 19 19 19 18 18 18 18 18 20 22 21 18 17 16 15 17 19 21 23 25 27 26 23 21 22 25 26 26 27 28 28 28 28 27 27 29 30 30 30 30 27
20 20 19 20 20 19 18 18 19 22 24 23 21 20 19 17 15 15 15 17 19 23 26 27 26 25 25 25 25 26 27 28 30 29 28 28 28 30 32 32 29 26
20 20 19 20 20 20 19 20 22 24 25 25 25 24 23 22 20 19 17 17 16 16 19 23 26 27 27 25 25 26 26 27 29 29 28 28 29 30 32 30 26 25
20 20 19 20 20 20 20 21 23 24 25 26 27 26 26 25 24 23 22 21 20 20 19 18 20 25 27 27 26 26 25 26 27 29 29 27 29 31 30 25 23 24
19 19 19 20 20 20 21 21 22 24 24 25 26 25 25 26 26 27 27 25 24 24 23 22 18 18 22 26 27 27 26 24 24 27 27 25 27 29 26 22 22 22
19 19 18 19 19 19 21 21 21 21 22 24 24 23 22 23 25 27 28 28 27 25 24 25 24 22 18 19 23 25 28 26 23 25 27 25 25 27 24 21 21 21
18 18 18 18 19 19 19 20 19 19 20 21 22 21 20 21 22 23 25 27 27 25 24 23 23 24 23 20 17 17 21 24 23 25 27 24 22 22 23 23 23 24
17 17 17 17 18 19 19 18 18 18 18 18 19 20 20 20 20 21 23 24 25 24 23 22 22 21 21 21 18 13 12 15 20 24 24 21 22 21 22 25 25 25
17 17 18 18 18 19 19 18 18 18 18 17 17 18 19 18 19 20 21 22 23 25 25 25 25 24 21 20 16 9 5 9 15 18 18 19 20 19 20 24 25 23

ECMWFNIL_850_spd_084.txt.gz
Wind_Speed
9 9 10 9 8 6 6 9 11 12 14 15 15 15 16 16 16 17 18 18 18 19 19 19 19 20 20 21 21 22 24 26 27 26 26 27 28 28 29 29 29 29
12 11 12 12 11 9 7 7 9 11 13 15 16 16 16 17 17 18 20 21 21 20 18 19 21 21 20 20 21 22 23 25 27 26 26 27 27 27 29 29 30 30
12 12 12 12 13 12 11 8 7 8 11 14 15 16 16 17 18 18 20 23 24 22 19 19 21 23 23 21 20 22 23 25 27 26 26 27 27 27 28 29 30 30
14 15 14 13 12 13 13 11 7 6 10 13 15 16 16 18 19 19 19 22 24 23 21 21 21 23 23 22 21 22 24 25 26 26 27 27 27 27 27 27 29 29
15 16 16 16 15 15 14 12 9 7 9 12 14 15 16 17 19 19 19 20 21 22 22 22 22 22 22 22 21 22 23 24 26 27 27 26 27 28 28 27 27 28
16 17 17 18 18 17 16 14 12 10 10 12 13 14 15 17 18 19 19 19 20 20 21 22 23 22 21 21 21 22 23 24 25 27 28 28 27 28 29 28 28 28
18 18 17 18 18 18 18 17 17 15 12 12 13 13 14 16 17 18 18 19 19 19 19 20 21 21 20 21 21 23 23 23 24 26 28 29 28 28 29 30 29 28
18 18 17 18 18 18 19 19 20 19 14 12 13 13 12 14 17 18 18 19 18 18 18 19 21 21 21 21 22 24 24 24 24 26 28 29 29 29 30 30 29 28
19 19 18 19 19 20 20 19 19 20 18 15 14 12 11 12 16 18 18 19 20 20 19 20 22 22 22 23 24 25 26 26 26 27 29 30 30 30 30 30 29 28
22 21 20 21 22 22 22 21 19 19 19 18 17 15 13 13 14 15 16 17 19 20 20 21 22 23 24 25 27 27 27 28 28 28 29 30 29 29 28 27 28 29
23 22 21 22 23 24 24 23 22 20 20 19 18 17 16 15 15 16 15 15 16 19 20 22 22 23 24 26 28 28 27 28 28 28 29 30 29 29 28 27 28 29
22 21 22 22 22 22 23 22 22 23 21 20 19 18 17 17 18 18 18 17 16 17 17 19 20 22 24 25 26 27 27 28 29 29 30 30 30 30 29 28 28 28
21 20 21 21 20 20 20 20 21 22 21 21 20 19 19 20 20 21 21 20 20 19 17 16 18 21 22 22 24 24 25 26 29 30 29 29 31 31 29 29 28 28
21 20 20 20 18 19 19 20 20 21 22 22 21 20 20 21 21 22 23 23 24 24 21 19 18 18 18 19 21 22 21 23 25 28 28 28 30 29 28 29 28 30
19 19 19 19 18 18 19 19 19 21 23 24 23 22 21 20 20 20 22 23 24 25 25 24 22 21 20 20 20 22 23 24 23 24 25 27 28 28 28 29 30 31
19 18 19 20 20 20 19 19 19 20 22 23 24 24 22 20 20 19 18 19 20 21 23 23 23 26 28 26 22 20 22 24 25 25 24 26 28 29 30 30 30 31
20 19 20 20 21 21 20 20 20 19 20 22 24 26 25 23 22 21 20 19 18 18 18 18 20 25 28 29 27 24 23 24 26 27 26 26 27 29 30 30 29 31
21 21 21 21 22 22 23 23 21 20 19 21 23 25 27 27 26 25 24 22 19 18 18 16 17 21 24 27 29 29 29 29 28 28 28 27 26 27 30 30 29 31
21 21 21 22 22 23 24 25 25 24 22 22 23 24 26 27 28 28 28 27 25 22 21 20 19 20 21 23 26 27 29 31 31 30 29 28 26 27 29 30 29 29
21 21 21 22 23 23 24 24 26 27 25 24 23 24 25 26 26 27 28 28 28 28 27 26 25 25 25 24 22 23 26 30 32 31 30 29 28 28 28 29 29 30
21 21 22 22 23 24 24 23 24 26 27 26 24 24 24 24 24 26 27 27 27 28 28 28 28 29 30 30 27 22 21 25 30 31 30 28 28 28 29 28 28 29
21 21 22 22 23 24 24 24 24 25 26 27 25 24 23 23 23 25 27 27 26 26 26 28 29 30 31 33 33 27 20 18 22 26 27 27 28 27 27 27 27 28
21 21 22 23 24 24 25 25 25 25 26 26 26 25 25 24 24 24 26 27 26 26 27 28 29 30 30 32 35 32 24 18 15 16 19 24 27 25 24 26 29 30
22 22 22 23 23 24 25 25 24 25 25 25 24 24 25 25 25 25 26 27 27 26 27 27 29 30 30 31 33 32 27 22 18 13 13 18 23 24 23 25 29 30
23 23 23 24 24 24 25 25 23 23 23 23 22 22 23 24 25 26 28 29 27 26 27 27 28 29 29 29 30 30 27 23 18 13 10 10 13 18 21 23 28 29
23 23 24 24 24 24 25 25 24 23 23 23 22 22 22 22 23 25 28 30 29 28 27 28 28 28 28 27 26 26 26 24 21 17 13 10 7 9 11 15 24 27

ECMWFNIL_850_spd_087.txt.gz
Wind_Speed
6 5 4 3 1 3 5 7 7 7 6 7 10 11 12 12 13 13 13 15 17 18 19 20 21 21 21 20 19 21 22 23 24 25 27 29 29 29 29 30 32 33
8 7 6 4 3 1 1 4 6 7 6 5 6 9 12 13 13 13 14 15 16 17 17 19 20 22 23 20 18 20 21 21 23 24 25 27 28 29 29 29 31 32
10 10 9 8 8 7 4 1 5 7 8 7 5 6 9 12 12 14 15 15 17 17 17 17 18 20 21 20 18 19 20 21 23 24 25 25 25 26 27 27 28 29
13 11 10 11 12 11 8 4 2 5 8 8 7 7 8 10 11 12 14 15 16 17 17 17 17 17 19 19 18 18 19 21 22 24 25 25 24 25 26 25 26 27
17 15 15 15 15 15 14 11 8 6 6 7 8 8 9 9 10 11 13 15 16 17 17 17 17 16 17 18 18 18 19 19 21 23 24 25 25 25 25 25 26 26
19 18 18 19 19 19 18 17 14 11 9 7 7 7 7 8 9 10 11 13 15 17 17 17 17 17 16 16 17 18 18 19 21 22 23 23 24 25 25 26 26 26
20 20 20 21 22 22 21 21 19 16 14 12 10 8 7 6 7 9 10 11 12 14 15 15 16 16 16 17 17 17 18 19 20 21 22 23 23 24 25 25 26 25
20 20 21 21 21 21 21 22 22 20 17 16 13 12 9 7 7 9 10 10 11 12 13 13 14 15 16 17 18 19 20 20 21 22 23 23 24 25 25 25 25 24
18 19 20 19 19 19 20 20 21 21 20 19 17 16 15 11 8 10 12 12 12 12 13 13 14 14 14 15 16 17 19 21 22 23 24 25 26 26 26 26 25 25
18 18 18 18 17 18 18 18 19 20 20 20 19 18 18 16 14 13 13 14 14 14 14 14 15 15 14 14 15 16 18 19 20 23 25 25 27 27 27 26 26 27
18 18 18 17 17 17 17 17 18 19 20 20 20 19 19 18 17 16 15 15 14 15 16 16 17 19 18 16 16 17 19 20 21 23 25 25 27 28 28 27 28 27
17 18 19 18 17 17 17 16 17 18 19 19 20 20 19 18 18 18 17 16 15 15 16 16 18 22 23 21 19 19 19 20 21 22 23 24 26 28 28 28 29 29
18 19 20 21 20 19 18 17 17 17 17 18 19 19 19 19 19 19 18 17 16 15 15 15 17 22 24 25 24 23 23 22 22 22 23 24 25 26 27 29 30 29
21 21 22 23 23 23 22 21 19 18 17 17 18 19 20 20 20 20 19 17 16 15 14 14 16 20 22 24 25 26 27 27 27 26 25 25 26 26 26 27 28 29
22 22 23 25 25 26 26 25 23 21 19 17 18 18 19 20 20 20 20 18 16 15 14 14 15 17 19 21 22 24 27 29 30 31 30 29 29 28 27 26 26 27
23 23 23 25 25 25 26 26 26 25 23 20 19 19 19 19 20 20 20 20 18 17 16 16 17 18 19 19 21 22 25 28 30 31 33 33 33 31 29 27 26 27
23 23 24 25 25 25 25 25 26 26 24 22 21 21 20 19 19 20 20 21 21 20 19 19 20 20 21 21 21 22 24 26 29 30 30 32 34 35 33 30 28 29
22 23 25 26 26 25 25 25 26 26 26 24 23 23 22 21 20 21 22 22 22 21 21 21 22 22 22 23 24 24 25 25 27 29 29 29 31 35 35 33 31 30
21 22 24 25 25 25 25 25 26 27 27 26 26 24 22 22 22 23 23 23 22 22 22 23 23 24 24 25 26 27 27 26 25 26 27 27 28 30 32 32 31 30
21 21 22 22 23 23 22 22 24 25 25 25 26 25 24 24 24 24 24 24 24 24 24 24 25 26 26 26 27 29 29 27 24 23 24 25 24 24 25 27 28 29
24 23 22 22 24 24 22 19 20 22 22 22 23 25 25 26 27 27 26 25 25 25 25 26 27 28 28 27 26 28 29 28 24 22 24 25 22 20 20 21 24 26
27 26 25 26 30 30 26 22 22 22 20 18 19 21 23 26 27 28 28 27 27 27 27 28 29 30 30 29 27 26 27 27 25 23 22 23 22 21 20 20 22 24
28 28 27 29 33 34 31 28 26 25 22 19 19 19 20 22 25 27 28 28 28 29 29 30 31 31 31 30 28 26 26 27 25 24 23 21 21 21 21 20 20 21
27 28 28 30 33 35 34 32 31 29 28 26 24 22 21 21 23 25 27 29 29 30 30 30 31 31 31 31 30 28 27 26 25 24 24 25 25 24 23 23 22 21
27 28 29 30 32 35 35 35 34 33 33 32 29 27 25 24 25 26 27 28 28 28 29 29 30 30 31 31 31 30 28 27 27 26 26 27 28 26 24 25 24 22
25 27 28 28 30 33 34 35 35 34 34 34 33 31 29 28 29 29 29 29 29 29 29 29 29 29 29 29 31 32 31 29 28 28 27 26 26 25 23 23 23 21

ECMWFNIL_850_spd_090.txt.gz
Wind_Speed
6 8 9 9 10 12 14 15 15 15 13 12 12 13 12 11 11 11 11 11 11 12 13 14 15 18 20 20 20 21 23 24 23 23 22 22 21 21 22 25 27 28
0 1 2 3 4 7 10 11 12 13 13 13 13 13 12 12 12 12 12 12 11 12 12 12 13 15 19 19 19 19 21 21 21 21 22 22 20 19 20 22 24 25
5 5 4 4 2 2 4 7 8 10 11 12 13 13 13 14 14 14 13 13 12 12 12 13 13 14 17 19 18 18 18 19 19 19 21 21 20 20 20 20 21 22
9 8 7 6 5 3 2 3 5 7 8 10 12 14 15 15 15 15 14 13 13 13 12 12 13 13 14 16 17 17 17 17 17 17 18 19 19 20 20 20 20 20
11 10 9 8 7 5 3 2 3 5 7 8 10 12 14 15 15 15 14 13 14 13 12 11 11 11 12 13 14 15 16 16 16 16 17 18 18 18 19 20 19 20
10 9 8 8 7 6 5 4 4 4 5 6 7 8 11 13 15 14 13 12 13 13 13 12 12 13 13 13 13 13 13 15 15 15 16 17 18 18 18 18 18 19
8 7 7 6 6 6 7 7 7 8 7 7 6 5 6 8 10 12 13 13 14 14 15 15 15 15 14 14 15 15 15 16 17 16 16 16 17 18 19 20 20 20
6 6 6 5 5 6 7 9 10 10 10 9 9 8 7 6 6 8 11 13 15 16 17 18 19 18 17 16 17 18 18 19 20 20 20 19 18 18 19 21 22 23
5 6 6 6 6 6 7 9 10 10 10 10 10 10 9 9 8 7 8 10 12 14 17 20 22 21 20 20 20 20 21 20 20 21 22 23 22 21 21 22 23 25
8 9 9 9 10 11 10 10 9 10 10 11 11 11 11 10 9 9 8 9 9 10 12 16 20 21 21 22 22 23 24 25 24 23 22 23 23 24 23 24 24 26
12 14 15 15 16 16 14 12 11 10 10 11 11 12 12 12 11 11 11 10 10 11 12 14 16 18 19 19 20 21 23 26 27 27 25 24 23 23 23 24 25 25
16 17 18 17 17 17 16 15 13 12 11 11 11 11 12 12 13 13 13 12 12 12 13 14 16 17 18 19 19 19 19 21 23 25 26 27 27 26 26 26 27 26
18 18 17 16 16 16 16 16 15 14 13 12 12 12 12 13 14 14 14 14 14 13 13 13 15 16 17 18 18 19 20 20 21 22 23 24 26 29 30 30 30 29
18 17 16 16 16 16 15 16 16 15 15 14 14 14 14 15 16 16 16 16 16 16 15 15 15 16 18 19 20 21 21 22 23 24 25 24 24 25 28 30 32 32
17 17 17 16 16 16 17 17 16 15 15 15 15 15 15 16 17 17 17 17 18 18 18 18 18 19 21 23 24 23 23 24 25 25 26 27 26 25 25 27 30 33
16 17 16 16 16 17 18 19 18 16 16 16 16 16 16 16 17 17 18 19 19 20 20 21 21 21 22 23 24 24 24 25 26 26 26 26 26 26 25 25 26 28
16 16 16 16 16 17 18 19 19 19 19 19 17 16 17 17 17 18 19 20 21 21 22 22 22 23 23 22 22 23 24 25 26 27 26 25 24 23 24 24 24 24
20 20 19 18 17 17 17 17 18 19 21 21 20 18 18 18 19 20 21 21 22 22 23 24 24 24 25 24 23 22 23 24 25 27 26 25 24 23 23 23 24 23
26 26 26 24 22 21 20 19 19 19 20 22 22 21 20 21 22 23 23 24 24 24 24 25 25 26 26 26 25 23 23 23 23 24 25 25 24 23 22 22 23 24
30 30 30 29 28 27 27 25 24 22 22 22 24 24 24 24 25 24 24 24 25 25 25 25 26 26 27 27 26 25 23 22 22 22 24 25 25 24 23 22 22 23
31 32 32 32 31 31 31 31 30 29 27 26 26 25 25 25 25 25 25 25 24 24 25 25 26 26 27 27 26 26 24 23 22 22 23 25 27 27 26 25 24 24
31 33 33 32 33 33 33 34 33 32 30 28 27 26 26 26 26 26 26 26 26 26 26 26 26 26 27 27 27 26 25 24 24 23 23 25 27 28 27 27 28 28
30 32 33 32 32 33 33 33 33 32 30 29 29 28 28 28 28 27 28 28 28 29 29 29 29 28 29 28 28 28 27 25 25 25 24 24 26 28 27 27 29 30
28 30 31 31 31 31 32 32 32 31 31 30 30 30 30 29 28 27 27 27 28 29 30 30 31 32 31 31 30 29 28 27 26 25 25 24 26 28 27 27 29 28
26 27 29 30 30 30 30 30 31 30 30 30 30 31 31 31 30 29 27 27 27 27 28 29 31 33 33 33 32 31 30 29 28 27 26 26 27 29 28 27 28 27
25 25 27 28 28 29 29 29 29 29 29 29 29 31 32 33 33 32 30 29 27 26 27 29 31 32 33 33 33 33 32 31 29 28 28 27 28 30 30 30 30 30

ECMWFNIL_850_spd_093.txt.gz
Wind_Speed
13 14 15 16 17 18 19 20 20 20 21 21 20 20 19 20 21 21 20 19 20 19 18 18 18 19 19 19 18 17 17 17 18 19 21 23 23 22 22 21 22 22
5 6 7 9 11 13 15 16 18 19 19 19 20 20 20 21 21 22 21 21 21 20 19 19 19 19 19 19 19 18 17 16 16 16 18 20 21 21 21 20 20 20
2 3 4 6 8 10 12 13 15 16 16 17 18 19 20 21 22 22 22 22 21 20 20 20 19 18 19 19 19 19 19 17 16 15 16 17 18 19 20 20 20 20
2 2 3 5 7 9 11 12 13 15 15 16 17 18 19 20 21 22 22 22 21 21 21 21 19 17 17 19 19 20 20 19 19 19 18 18 17 18 19 20 21 21
1 3 4 6 8 10 12 13 13 14 14 15 16 17 18 19 20 21 22 22 22 22 22 22 20 19 18 19 19 20 20 20 21 22 22 22 20 20 21 21 20 21
4 5 6 8 10 10 10 10 10 9 9 10 11 12 13 15 17 18 19 21 21 21 22 22 21 21 21 21 21 21 21 21 20 21 22 24 24 24 24 23 23 22
6 7 9 11 12 10 8 5 4 5 6 7 8 9 9 10 12 13 14 16 18 19 21 22 23 23 23 24 24 23 23 23 24 24 25 26 27 26 25 25 26 26
7 9 10 11 12 10 6 4 4 5 6 7 9 9 10 11 11 12 12 13 15 16 18 20 21 21 21 21 22 22 22 23 25 27 28 28 28 28 27 27 27 28
6 7 7 8 8 7 5 5 6 7 7 8 9 10 11 11 12 12 12 13 13 14 15 17 17 17 17 17 18 18 19 19 20 22 25 27 29 30 30 30 28 28
4 5 6 7 8 9 8 8 9 9 9 9 10 11 12 12 12 12 13 13 13 14 14 16 16 17 17 16 16 17 17 17 18 18 20 21 24 25 28 29 30 30
5 6 7 8 9 9 10 10 10 10 10 10 11 11 12 12 12 12 13 13 14 14 15 16 17 18 18 18 18 18 18 19 19 19 20 20 21 22 23 25 28 30
5 7 8 10 10 10 10 10 11 11 12 12 12 11 11 11 12 12 13 13 14 14 14 15 17 18 18 19 19 19 20 21 21 21 22 22 23 23 23 23 25 27
6 7 9 11 11 10 10 11 11 12 12 13 13 12 11 11 12 13 13 14 14 15 15 16 18 19 19 20 20 20 21 22 23 23 23 23 24 25 25 25 25 25
7 8 9 10 11 12 12 12 12 12 13 12 13 13 13 14 14 15 15 15 16 16 17 18 19 20 22 23 23 23 23 23 23 24 25 25 25 24 24 25 25 25
7 8 9 11 13 14 14 14 14 13 13 12 12 13 14 15 15 15 16 16 17 17 18 19 20 21 23 25 26 26 26 25 24 24 25 27 27 26 25 25 25 25
8 9 10 11 13 14 14 15 14 14 13 12 13 13 14 15 15 16 17 17 18 18 19 19 20 21 22 23 24 25 26 26 25 24 24 25 27 27 27 26 26 26
12 12 12 13 14 14 15 15 15 15 15 15 15 15 16 16 17 17 18 18 19 19 19 20 20 21 21 21 22 23 24 25 26 25 24 23 24 26 28 28 27 26
17 17 17 17 17 17 17 18 18 18 19 19 19 19 19 19 19 19 19 19 19 20 21 21 21 21 21 22 22 21 22 23 24 25 24 23 23 24 26 28 29 28
20 20 20 21 21 21 21 21 21 22 22 22 21 21 20 19 19 19 19 20 20 21 22 22 23 23 23 23 23 22 22 21 22 23 23 22 22 23 24 26 29 30
21 21 22 23 23 23 23 23 23 24 23 23 22 20 20 19 19 19 19 20 20 21 22 23 24 25 26 25 25 24 23 22 21 21 21 21 21 22 24 25 27 30
23 23 23 23 23 23 23 24 25 25 25 24 23 22 21 20 19 19 19 19 19 20 22 23 25 26 27 28 27 26 25 23 21 20 20 21 20 21 23 25 27 29
23 23 23 23 23 23 23 24 25 25 26 26 25 25 24 23 22 21 20 20 20 20 21 23 25 27 29 30 30 29 28 26 24 22 21 21 21 21 22 25 28 30
23 23 23 22 22 22 23 23 23 24 25 26 27 28 27 27 25 23 22 21 21 21 22 24 26 27 29 30 31 31 31 29 28 25 23 22 22 22 23 25 28 30
22 22 22 22 22 22 22 22 22 23 25 27 29 30 30 29 27 25 23 22 22 23 23 24 25 27 29 30 31 32 33 32 32 30 27 26 25 25 25 26 28 30
21 21 22 22 22 22 21 21 22 23 25 27 29 31 32 31 30 28 27 26 25 24 23 23 25 27 30 31 32 32 33 34 33 32 31 30 29 29 28 28 29 31
22 22 22 22 22 21 21 21 22 23 25 27 30 31 32 31 31 31 31 30 28 26 26 25 25 27 30 32 33 33 35 35 34 33 32 32 31 31 31 31 32 33

ECMWFNIL_850_spd_096.txt.gz
Wind_Speed
11 12 12 13 14 15 16 17 18 19 19 19 20 20 20 20 19 18 18 19 21 23 23 23 22 21 20 19 19 20 20 20 20 20 18 17 17 18 19 18 17 17
6 7 9 10 11 13 14 15 16 17 18 19 19 19 19 19 19 20 19 20 22 23 23 22 21 21 21 20 18 19 21 22 22 21 20 19 19 19 19 20 19 18
4 5 7 8 10 11 12 14 15 17 18 19 19 19 19 19 19 20 20 20 21 22 22 22 22 22 22 21 19 18 21 23 23 22 21 20 20 20 21 21 21 21
5 7 8 9 11 12 13 15 16 17 17 17 17 16 16 16 16 17 18 19 20 21 22 22 23 23 22 22 22 21 22 23 23 23 22 21 20 21 21 21 22 22
9 10 11 12 13 14 15 15 14 14 13 13 13 14 15 15 15 15 15 16 17 19 20 20 21 21 21 21 21 21 21 22 23 24 24 24 22 22 22 23 24 25
11 12 12 13 14 15 15 13 11 10 11 12 13 14 15 15 15 15 15 16 16 17 18 18 18 18 19 19 19 20 20 20 20 20 21 22 23 24 25 26 28 27
12 12 12 13 13 13 13 11 11 11 12 13 14 14 15 15 15 15 16 16 16 17 17 18 18 18 18 18 18 19 19 19 19 19 19 20 20 21 21 23 25 26
12 12 11 11 10 10 10 10 11 12 12 13 13 14 15 15 15 15 16 16 16 16 16 17 18 18 19 19 19 19 19 20 20 20 20 20 20 20 20 20 21 22
10 10 9 9 9 9 9 9 10 11 11 12 12 13 14 14 15 15 16 16 16 16 17 18 18 19 20 21 21 22 22 22 22 22 22 22 22 22 22 22 22 22
9 9 9 9 9 10 10 10 10 11 11 12 12 13 14 14 15 15 16 16 17 18 19 19 20 21 21 22 22 23 24 24 24 24 24 25 25 24 24 24 25 25
10 9 10 10 11 11 11 11 12 12 12 12 13 13 14 14 14 15 16 17 18 19 20 21 22 22 23 23 23 23 24 25 25 25 26 26 26 26 26 25 25 26
11 12 13 13 12 12 12 12 12 12 12 13 14 14 14 15 15 16 17 17 18 19 20 21 22 23 24 24 24 24 24 25 25 25 25 25 25 26 26 26 26 25
11 13 13 14 13 12 12 12 12 13 13 14 15 15 15 16 17 18 18 18 19 20 20 21 22 23 24 25 25 26 26 27 27 26 26 25 24 24 25 26 26 25
11 12 12 13 13 12 12 13 13 13 14 15 15 16 17 18 19 19 19 19 20 20 21 22 23 24 25 27 28 29 29 29 28 28 28 27 25 24 23 24 25 25
10 11 12 12 12 13 14 14 14 15 15 16 17 18 19 19 19 19 19 20 20 21 22 23 23 24 26 28 29 30 30 30 30 29 29 28 27 26 24 23 23 24
10 11 12 12 13 15 15 16 16 16 17 18 19 19 19 19 19 19 20 21 22 22 23 24 25 25 26 27 28 29 30 30 31 31 29 28 28 27 27 25 23 23
13 13 13 14 16 16 17 17 17 17 18 18 19 19 19 19 19 20 21 21 22 22 23 24 25 26 27 27 28 28 29 30 30 31 30 28 27 27 27 27 26 24
15 15 16 17 17 18 18 18 17 18 18 19 19 20 20 19 20 20 20 21 21 22 23 24 25 26 27 28 29 29 30 30 29 29 29 28 27 27 27 27 27 27
17 17 18 18 18 19 18 18 18 19 20 20 20 20 20 20 21 21 20 20 21 22 22 23 24 26 27 29 30 31 31 31 30 29 28 28 27 27 27 27 27 28
18 18 19 19 19 18 18 18 19 20 21 21 21 21 21 21 22 21 21 21 21 21 22 23 24 26 27 29 30 31 32 32 31 30 29 28 27 27 27 27 28 29
19 19 18 18 17 16 17 18 19 20 21 22 23 23 24 24 24 23 23 22 21 21 21 22 24 25 27 29 30 31 31 32 32 32 31 30 29 28 27 27 29 30
18 17 16 16 15 15 16 18 20 21 23 24 24 25 26 26 26 25 24 22 21 20 20 21 23 25 27 29 30 31 32 32 33 33 33 32 31 30 29 28 30 32
17 16 15 14 14 15 17 20 21 23 24 25 26 27 28 28 28 26 24 23 22 21 21 22 23 25 28 30 32 33 34 35 36 36 35 34 33 32 31 31 32 33
16 15 14 14 15 17 20 21 23 24 25 26 27 28 29 29 29 27 25 24 23 23 22 22 23 25 28 31 33 35 36 37 38 38 38 37 36 35 34 33 32 32
15 14 15 16 17 19 20 21 23 24 25 27 27 28 29 30 29 28 27 25 24 24 23 22 23 26 29 31 33 35 37 38 39 39 39 39 39 38 37 35 33 31
16 16 17 17 18 19 20 21 22 23 24 26 27 28 29 30 30 30 28 27 26 25 25 24 25 26 29 31 33 34 36 37 38 39 39 39 38 38 38 37 34 32

ECMWFNIL_850_spd_099.txt.gz
Wind_Speed
4 5 5 6 7 8 10 11 13 14 15 17 17 16 16 16 15 15 15 16 16 15 15 16 15 15 15 14 14 14 13 12 13 15 17 18 17 15 16 17 17 17
5 6 6 7 9 10 11 13 14 15 15 15 15 14 14 14 14 14 14 15 16 15 15 15 16 16 16 15 14 14 13 13 15 16 18 19 19 17 17 18 18 18
7 7 7 9 10 11 12 13 14 14 13 13 13 14 14 13 13 13 13 14 14 14 14 14 15 15 16 16 16 16 15 15 15 16 16 17 18 19 19 20 20 20
8 8 9 10 11 11 12 12 12 11 11 12 13 13 13 13 13 13 13 13 13 14 14 14 15 15 16 16 16 16 16 17 17 17 17 17 17 17 18 19 20 21
10 10 10 10 10 11 10 10 9 10 11 11 12 13 13 13 13 13 13 13 14 14 14 15 15 16 16 17 17 17 17 17 17 18 18 18 18 18 18 18 19 19
10 11 10 10 11 10 10 9 10 10 11 12 13 13 14 14 14 14 14 14 14 15 15 16 16 17 18 18 18 19 19 19 19 19 19 19 19 19 19 19 19 19
11 11 10 11 11 11 11 11 11 12 13 13 14 14 14 15 15 15 15 15 15 16 17 17 18 19 19 20 20 20 21 21 21 21 21 21 21 21 21 21 20 20
10 10 10 10 10 10 11 12 12 13 13 13 13 14 14 15 15 15 16 16 17 17 18 19 20 21 21 22 22 22 22 22 22 23 23 23 23 23 24 23 23 22
9 10 10 9 10 11 12 12 13 13 13 13 14 14 15 15 16 16 17 17 18 19 20 21 22 23 23 23 23 23 23 23 23 23 24 24 24 24 25 25 26 26
11 11 11 11 12 12 13 13 13 13 14 14 15 16 16 16 17 18 18 19 20 22 23 24 24 25 25 25 25 26 26 26 26 26 25 25 25 24 24 25 26 27
13 13 13 13 14 14 14 14 14 15 15 16 17 17 17 18 19 20 21 22 23 24 24 25 26 26 26 27 28 29 29 29 29 29 29 28 27 26 25 25 25 25
15 14 14 15 15 15 15 15 16 16 17 18 18 19 19 20 21 21 22 23 23 24 25 26 26 27 28 29 30 31 31 31 31 30 30 30 29 28 27 26 25 25
15 15 15 16 16 16 17 17 18 18 19 20 20 20 21 21 22 22 22 23 23 24 24 25 26 28 29 30 31 31 31 31 31 31 31 30 30 29 28 28 26 25
15 15 16 17 17 18 18 19 19 20 20 20 20 21 22 22 22 22 22 23 23 24 24 26 27 29 30 31 32 32 32 32 32 32 32 31 30 29 28 28 27 25
15 16 17 17 18 18 19 20 20 21 21 21 21 22 22 22 22 22 22 23 23 24 25 26 27 29 30 31 32 32 33 33 33 32 32 31 31 30 29 28 27 25
16 17 17 17 18 19 20 20 20 21 21 21 21 21 21 22 22 22 22 23 23 23 24 25 26 27 28 28 30 31 32 33 33 33 32 32 32 31 30 29 27 26
17 17 17 18 19 19 19 20 20 20 21 21 21 21 21 21 21 21 22 22 22 22 23 24 25 26 26 27 28 30 31 31 32 32 32 32 32 32 31 30 28 27
17 17 17 18 18 19 19 19 19 20 20 21 21 22 22 21 22 22 22 22 22 22 23 24 25 25 26 27 28 29 29 30 31 32 32 32 32 32 32 31 30 30
17 17 17 17 18 18 19 19 19 20 21 22 22 23 23 23 23 24 23 23 23 23 23 24 24 24 25 26 27 28 28 29 30 31 32 32 32 32 32 32 31 32
16 16 16 17 17 17 18 18 20 21 23 24 24 24 24 24 24 24 24 23 23 22 22 22 23 24 25 26 27 27 28 29 30 32 33 33 34 34 34 33 32 32
15 15 16 16 17 17 18 20 22 24 25 26 26 26 26 25 25 24 24 23 22 22 21 22 23 24 26 27 27 28 29 30 32 33 34 35 35 35 34 33 32 32
15 15 15 16 16 17 19 22 24 25 26 27 27 27 26 26 25 24 24 23 22 21 21 22 24 25 26 27 28 29 30 32 33 34 35 36 36 36 34 33 31 31
15 15 15 16 17 19 21 23 24 25 26 27 27 27 27 26 25 24 23 22 22 22 22 23 24 25 27 28 29 30 31 33 34 35 36 37 37 36 35 33 31 29
15 15 15 16 17 20 22 23 24 25 26 27 27 27 27 26 25 24 22 22 22 22 22 23 24 25 27 28 29 31 33 34 34 35 36 36 37 37 35 33 31 30
15 15 15 17 19 20 21 22 23 24 25 25 26 27 26 26 26 25 24 23 22 22 22 23 24 24 26 28 30 31 33 34 34 35 35 36 36 36 34 33 32 32
16 16 16 17 19 20 20 21 22 23 23 24 25 25 25 25 25 26 26 25 24 24 23 23 24 24 25 27 29 31 32 33 34 34 34 35 34 33 32 32 32 32

ECMWFNIL_850_spd_102.txt.gz
Wind_Speed
5 5 4 4 4 4 4 4 5 6 7 7 8 9 9 9 9 9 10 10 11 12 12 13 13 13 13 12 12 12 11 11 10 10 11 12 14 15 16 16 15 16
5 4 4 4 5 6 6 6 7 8 9 9 9 9 9 9 9 9 10 11 11 12 12 12 13 13 13 13 13 13 13 12 12 11 11 12 12 13 13 14 14 15
5 4 4 5 6 7 7 7 8 9 9 9 9 9 9 9 9 9 10 11 11 11 12 12 13 13 13 13 14 14 14 14 14 13 13 13 13 14 14 14 14 14
6 6 6 7 8 8 8 8 8 9 9 9 9 9 9 9 10 10 11 11 11 11 12 12 12 13 13 13 14 14 15 16 16 16 15 14 14 16 15 15 15 15
8 8 8 9 9 9 9 9 9 9 10 10 10 10 10 11 11 11 11 12 12 13 13 13 14 14 14 14 15 15 16 16 17 17 17 16 15 16 16 15 16 15
8 9 9 10 11 10 10 10 10 10 11 11 11 12 12 12 13 13 13 14 14 14 15 15 16 16 16 16 17 17 17 18 18 18 19 17 16 15 15 16 16 15
9 10 10 11 11 11 11 11 11 12 12 13 13 14 14 14 14 14 15 15 15 16 17 17 18 18 18 18 19 19 19 19 19 19 19 19 17 15 15 16 16 15
10 11 11 11 11 12 12 13 13 14 14 14 15 15 15 15 15 15 16 16 16 17 18 18 19 19 19 20 20 21 21 21 21 21 20 20 19 17 15 16 17 15
10 11 12 12 12 13 14 14 15 15 16 16 16 16 16 16 16 16 17 17 18 19 19 20 20 21 21 22 23 23 23 23 23 23 22 20 18 16 15 16 17 16
10 11 12 12 13 14 15 16 16 16 17 16 17 16 16 17 17 17 18 18 19 20 20 21 22 22 23 24 24 25 25 25 24 23 22 20 16 15 16 16 16 17
11 11 12 13 15 16 17 17 17 17 17 17 17 17 17 18 18 18 19 19 20 21 21 22 22 23 24 25 25 26 26 26 25 23 21 18 15 15 16 16 16 17
11 13 14 15 17 17 17 17 17 17 17 17 17 17 18 18 18 19 19 20 20 21 21 22 23 24 25 26 26 27 28 27 26 24 20 16 15 16 16 16 16 16
14 17 18 17 18 18 17 17 17 17 17 17 18 18 18 18 18 18 19 20 20 21 22 23 24 25 25 26 27 28 28 27 26 25 21 16 15 15 16 16 16 15
18 19 18 18 18 18 17 17 17 17 18 18 18 18 18 18 18 19 20 20 21 22 22 23 24 25 26 27 28 27 27 27 26 24 22 18 16 15 16 16 16 16
19 18 18 18 18 18 18 18 18 18 18 18 18 18 18 19 19 19 20 20 21 22 22 23 24 25 27 27 27 27 27 25 22 20 20 19 17 16 16 16 17 16
18 19 19 18 18 18 18 18 18 19 19 19 19 19 19 20 19 19 20 21 21 21 22 23 23 24 24 25 26 26 26 25 21 19 19 19 17 17 16 16 17 16
18 19 18 18 19 19 19 19 19 20 19 19 20 20 20 20 20 20 21 21 21 21 21 22 22 23 22 23 25 25 25 25 23 21 20 19 18 17 16 17 18 18
19 18 18 19 19 19 20 20 20 20 20 20 21 21 21 21 21 21 21 21 20 20 21 21 21 21 21 22 24 23 24 25 23 21 20 18 17 17 16 17 18 19
19 19 19 19 20 20 20 20 20 21 22 22 22 22 21 21 21 21 20 19 19 18 19 20 20 21 21 22 23 22 24 24 20 18 18 17 16 17 17 17 19 21
19 19 19 20 21 21 21 21 22 23 23 23 23 22 22 22 21 21 20 19 18 15 16 19 21 21 21 22 23 23 24 25 20 16 16 16 16 17 17 17 19 21
18 19 19 20 20 21 22 22 23 24 25 24 23 23 23 22 21 20 19 19 18 15 14 17 21 21 21 22 23 23 25 27 24 18 15 16 17 17 18 17 18 20
18 18 19 20 20 22 23 24 24 25 25 25 25 24 24 23 21 20 19 18 18 17 15 16 20 21 21 22 23 24 26 28 26 20 16 17 18 18 19 18 19 20
17 18 19 20 21 22 23 24 25 25 26 26 25 25 24 23 22 21 20 19 19 18 16 16 19 22 22 23 24 26 27 28 26 21 17 18 19 19 20 19 20 23
17 18 19 20 21 22 23 24 24 25 26 25 25 25 24 24 23 22 21 20 20 20 18 15 17 21 23 24 25 26 27 28 27 22 18 19 20 20 20 20 21 24
17 18 19 20 21 22 22 23 23 24 25 24 23 22 23 23 23 22 22 22 20 20 19 18 18 20 23 24 25 26 27 28 29 25 19 18 21 20 20 21 21 23
18 18 19 19 20 21 21 21 21 22 23 23 21 21 21 22 23 23 23 23 21 19 19 20 21 21 22 24 25 26 27 27 29 27 20 17 20 20 20 22 22 22